Observation data for Persimmon Gap on 01/13/2018      Previous  Date  Next       Current Mesonet Observations  Soil Data  Daily Summary Page  Observations in Plain Language
KPG1 130600Z 03012KT 09/M07 A3025 RMK A01 T00941074  RH  030%=      5-min Rain = 0
KPG1 130601Z 03012KT 09/M07 A3025 RMK A01 T00941074  RH  030%=      5-min Rain = 0
KPG1 130602Z 03012KT 09/M07 A3025 RMK A01 T00941074  RH  030%=      5-min Rain = 0
KPG1 130603Z 03012KT 09/M07 A3025 RMK A01 T00931074  RH  030%=      5-min Rain = 0
KPG1 130604Z 03012KT 09/M07 A3025 RMK A01 T00921074  RH  030%=      5-min Rain = 0
KPG1 130605Z 03011KT 09/M07 A3025 RMK A01 T00911074  RH  030%=      5-min Rain = 0
KPG1 130606Z 03012KT 09/M08 A3025 RMK A01 T00911075  RH  030%=      5-min Rain = 0
KPG1 130607Z 03012KT 09/M07 A3025 RMK A01 T00901074  RH  031%=      5-min Rain = 0
KPG1 130608Z 03012KT 09/M07 A3025 RMK A01 T00901074  RH  031%=      5-min Rain = 0
KPG1 130609Z 03012KT 09/M07 A3025 RMK A01 T00901074  RH  031%=      5-min Rain = 0
KPG1 130610Z 03012KT 09/M08 A3025 RMK A01 T00901075  RH  030%=      5-min Rain = 0
KPG1 130611Z 02012KT 09/M08 A3025 RMK A01 T00911075  RH  030%=      5-min Rain = 0
KPG1 130612Z 02012KT 09/M08 A3025 RMK A01 T00921075  RH  030%=      5-min Rain = 0
KPG1 130613Z 02012KT 09/M07 A3025 RMK A01 T00931074  RH  030%=      5-min Rain = 0
KPG1 130614Z 02013KT 09/M07 A3025 RMK A01 T00941074  RH  030%=      5-min Rain = 0
KPG1 130615Z 02012KT 09/M08 A3025 RMK A01 T00941075  RH  030%=      5-min Rain = 0
KPG1 130616Z 02013KT 10/M07 A3025 RMK A01 T00951074  RH  030%=      5-min Rain = 0
KPG1 130617Z 02012KT 10/M08 A3025 RMK A01 T00951075  RH  029%=      5-min Rain = 0
KPG1 130618Z 02012KT 10/M08 A3025 RMK A01 T00951075  RH  029%=      5-min Rain = 0
KPG1 130619Z 02012KT 10/M08 A3025 RMK A01 T00951075  RH  029%=      5-min Rain = 0
KPG1 130620Z 02013KT 10/M08 A3025 RMK A01 T00951076  RH  029%=      5-min Rain = 0
KPG1 130621Z 02013KT 10/M08 A3025 RMK A01 T00951075  RH  029%=      5-min Rain = 0
KPG1 130622Z 02014KT 09/M08 A3025 RMK A01 T00941075  RH  029%=      5-min Rain = 0
KPG1 130623Z 02013KT 09/M08 A3026 RMK A01 T00941075  RH  029%=      5-min Rain = 0
KPG1 130624Z 02013KT 09/M08 A3026 RMK A01 T00941076  RH  029%=      5-min Rain = 0
KPG1 130625Z 02013KT 09/M08 A3026 RMK A01 T00941076  RH  029%=      5-min Rain = 0
KPG1 130626Z 02013KT 09/M08 A3026 RMK A01 T00931076  RH  030%=      5-min Rain = 0
KPG1 130627Z 02014KT 09/M08 A3026 RMK A01 T00921076  RH  030%=      5-min Rain = 0
KPG1 130628Z 02014KT 09/M08 A3026 RMK A01 T00911076  RH  030%=      5-min Rain = 0
KPG1 130629Z 02014KT 09/M08 A3026 RMK A01 T00901076  RH  030%=      5-min Rain = 0
KPG1 130630Z 02013KT 09/M08 A3026 RMK A01 T00891076  RH  030%=      5-min Rain = 0
KPG1 130631Z 02013KT 09/M08 A3026 RMK A01 T00891076  RH  031%=      5-min Rain = 0
KPG1 130632Z 02013KT 09/M08 A3026 RMK A01 T00891076  RH  031%=      5-min Rain = 0
KPG1 130633Z 02012KT 09/M08 A3026 RMK A01 T00881075  RH  031%=      5-min Rain = 0
KPG1 130634Z 02012KT 09/M08 A3026 RMK A01 T00881075  RH  031%=      5-min Rain = 0
KPG1 130635Z 03013KT 09/M08 A3026 RMK A01 T00871076  RH  031%=      5-min Rain = 0
KPG1 130636Z 03012KT 09/M08 A3026 RMK A01 T00861076  RH  031%=      5-min Rain = 0
KPG1 130637Z 03012KT 09/M08 A3026 RMK A01 T00861076  RH  031%=      5-min Rain = 0
KPG1 130638Z 03012KT 09/M08 A3026 RMK A01 T00861076  RH  031%=      5-min Rain = 0
KPG1 130639Z 03014KT 09/M08 A3026 RMK A01 T00851076  RH  031%=      5-min Rain = 0
KPG1 130640Z 04013KT 09/M08 A3026 RMK A01 T00871077  RH  031%=      5-min Rain = 0
KPG1 130641Z 04013KT 09/M08 A3026 RMK A01 T00881077  RH  030%=      5-min Rain = 0
KPG1 130642Z 04011KT 09/M08 A3026 RMK A01 T00881078  RH  030%=      5-min Rain = 0
KPG1 130643Z 04013KT 09/M08 A3026 RMK A01 T00881079  RH  030%=      5-min Rain = 0
KPG1 130644Z 04011KT 09/M08 A3026 RMK A01 T00881080  RH  030%=      5-min Rain = 0
KPG1 130645Z 05012KT 09/M08 A3026 RMK A01 T00881079  RH  030%=      5-min Rain = 0
KPG1 130646Z 04011KT 09/M08 A3026 RMK A01 T00871080  RH  030%=      5-min Rain = 0
KPG1 130647Z 05013KT 09/M08 A3026 RMK A01 T00871080  RH  030%=      5-min Rain = 0
KPG1 130648Z 04013KT 09/M08 A3026 RMK A01 T00871080  RH  030%=      5-min Rain = 0
KPG1 130649Z 05013KT 09/M08 A3026 RMK A01 T00871080  RH  030%=      5-min Rain = 0
KPG1 130650Z 05012KT 09/M08 A3026 RMK A01 T00871080  RH  030%=      5-min Rain = 0
KPG1 130651Z 06014KT 09/M08 A3026 RMK A01 T00851081  RH  030%=      5-min Rain = 0
KPG1 130652Z 06014KT 09/M08 A3026 RMK A01 T00851081  RH  030%=      5-min Rain = 0
KPG1 130653Z 06015KT 08/M08 A3026 RMK A01 T00841081  RH  030%=      5-min Rain = 0
KPG1 130654Z 06015KT 08/M08 A3026 RMK A01 T00841080  RH  030%=      5-min Rain = 0
KPG1 130655Z 06015KT 08/M08 A3026 RMK A01 T00841080  RH  030%=      5-min Rain = 0
KPG1 130656Z 06014KT 08/M08 A3026 RMK A01 T00831080  RH  031%=      5-min Rain = 0
KPG1 130657Z 06015KT 08/M08 A3026 RMK A01 T00831080  RH  031%=      5-min Rain = 0
KPG1 130658Z 06014KT 08/M08 A3026 RMK A01 T00821080  RH  031%=      5-min Rain = 0
KPG1 130659Z 06015KT 08/M08 A3026 RMK A01 T00821080  RH  031%=      5-min Rain = 0
KPG1 130700Z 06016KT 08/M08 A3026 RMK A01 T00821080  RH  031%=      5-min Rain = 0
KPG1 130701Z 06016KT 08/M08 A3026 RMK A01 T00821081  RH  031%=      5-min Rain = 0
KPG1 130702Z 06017KT 08/M08 A3026 RMK A01 T00821080  RH  031%=      5-min Rain = 0
KPG1 130703Z 07018KT 08/M08 A3026 RMK A01 T00821080  RH  031%=      5-min Rain = 0
KPG1 130704Z 07019KT 08/M08 A3026 RMK A01 T00831080  RH  031%=      5-min Rain = 0
KPG1 130705Z 07016KT 08/M08 A3026 RMK A01 T00831079  RH  031%=      5-min Rain = 0
KPG1 130706Z 07017KT 08/M08 A3026 RMK A01 T00831078  RH  031%=      5-min Rain = 0
KPG1 130707Z 07017KT 08/M08 A3026 RMK A01 T00821077  RH  031%=      5-min Rain = 0
KPG1 130708Z 07015KT 08/M08 A3026 RMK A01 T00811077  RH  032%=      5-min Rain = 0
KPG1 130709Z 07017KT 08/M08 A3027 RMK A01 T00811077  RH  032%=      5-min Rain = 0
KPG1 130710Z 07016KT 08/M08 A3026 RMK A01 T00801076  RH  032%=      5-min Rain = 0
KPG1 130711Z 07016KT 08/M08 A3026 RMK A01 T00791075  RH  033%=      5-min Rain = 0
KPG1 130712Z 07016KT 08/M07 A3026 RMK A01 T00791074  RH  033%=      5-min Rain = 0
KPG1 130713Z 07017KT 08/M07 A3026 RMK A01 T00791073  RH  033%=      5-min Rain = 0
KPG1 130714Z 07017KT 08/M07 A3026 RMK A01 T00791071  RH  034%=      5-min Rain = 0
KPG1 130715Z 07017KT 08/M07 A3026 RMK A01 T00791071  RH  034%=      5-min Rain = 0
KPG1 130716Z 07018KT 08/M07 A3026 RMK A01 T00791072  RH  034%=      5-min Rain = 0
KPG1 130717Z 07017KT 08/M07 A3026 RMK A01 T00791071  RH  034%=      5-min Rain = 0
KPG1 130718Z 07017KT 08/M07 A3026 RMK A01 T00781071  RH  034%=      5-min Rain = 0
KPG1 130719Z 07019KT 08/M07 A3026 RMK A01 T00781070  RH  034%=      5-min Rain = 0
KPG1 130720Z 07017KT 08/M07 A3026 RMK A01 T00771070  RH  034%=      5-min Rain = 0
KPG1 130721Z 07018KT 08/M07 A3027 RMK A01 T00761071  RH  034%=      5-min Rain = 0
KPG1 130722Z 07018KT 08/M07 A3027 RMK A01 T00751070  RH  035%=      5-min Rain = 0
KPG1 130723Z 07017KT 08/M07 A3027 RMK A01 T00751070  RH  035%=      5-min Rain = 0
KPG1 130724Z 07016KT 08/M07 A3027 RMK A01 T00751070  RH  035%=      5-min Rain = 0
KPG1 130725Z 06013G18KT 08/M07 A3027 RMK A01 T00751069  RH  035%=      5-min Rain = 0
KPG1 130726Z 05015KT 07/M07 A3028 RMK A01 T00741070  RH  035%=      5-min Rain = 0
KPG1 130727Z 06018KT 07/M07 A3028 RMK A01 T00731071  RH  035%=      5-min Rain = 0
KPG1 130728Z 06018KT 07/M07 A3028 RMK A01 T00731070  RH  035%=      5-min Rain = 0
KPG1 130729Z 06018KT 08/M07 A3028 RMK A01 T00751070  RH  035%=      5-min Rain = 0
KPG1 130730Z 06016KT 08/M07 A3028 RMK A01 T00761070  RH  035%=      5-min Rain = 0
KPG1 130731Z 06017KT 07/M07 A3028 RMK A01 T00741071  RH  035%=      5-min Rain = 0
KPG1 130732Z 05017KT 07/M07 A3028 RMK A01 T00721071  RH  035%=      5-min Rain = 0
KPG1 130733Z 05015KT 07/M07 A3028 RMK A01 T00701072  RH  036%=      5-min Rain = 0
KPG1 130734Z 05015KT 07/M07 A3028 RMK A01 T00701071  RH  036%=      5-min Rain = 0
KPG1 130735Z 04015KT 07/M07 A3028 RMK A01 T00701071  RH  036%=      5-min Rain = 0
KPG1 130736Z 05015KT 07/M07 A3028 RMK A01 T00691071  RH  036%=      5-min Rain = 0
KPG1 130737Z 04013KT 07/M07 A3028 RMK A01 T00701071  RH  036%=      5-min Rain = 0
KPG1 130738Z 05014KT 07/M07 A3028 RMK A01 T00701071  RH  036%=      5-min Rain = 0
KPG1 130739Z 05014KT 07/M07 A3028 RMK A01 T00711070  RH  036%=      5-min Rain = 0
KPG1 130740Z 04013KT 07/M07 A3028 RMK A01 T00721070  RH  036%=      5-min Rain = 0
KPG1 130741Z 04015KT 07/M07 A3028 RMK A01 T00731070  RH  035%=      5-min Rain = 0
KPG1 130742Z 04014KT 07/M07 A3028 RMK A01 T00741070  RH  035%=      5-min Rain = 0
KPG1 130743Z 04013KT 08/M07 A3028 RMK A01 T00751070  RH  035%=      5-min Rain = 0
KPG1 130744Z 04014KT 08/M07 A3028 RMK A01 T00751069  RH  035%=      5-min Rain = 0
KPG1 130745Z 04014KT 08/M07 A3028 RMK A01 T00751070  RH  035%=      5-min Rain = 0
KPG1 130746Z 04015KT 07/M07 A3028 RMK A01 T00741070  RH  035%=      5-min Rain = 0
KPG1 130747Z 03014KT 07/M07 A3028 RMK A01 T00741070  RH  035%=      5-min Rain = 0
KPG1 130748Z 03014KT 07/M07 A3028 RMK A01 T00731070  RH  035%=      5-min Rain = 0
KPG1 130749Z 04014KT 07/M07 A3028 RMK A01 T00731070  RH  035%=      5-min Rain = 0
KPG1 130750Z 03014KT 07/M07 A3028 RMK A01 T00731070  RH  035%=      5-min Rain = 0
KPG1 130751Z 03012KT 07/M07 A3029 RMK A01 T00731070  RH  036%=      5-min Rain = 0
KPG1 130752Z 03012KT 07/M07 A3029 RMK A01 T00721070  RH  036%=      5-min Rain = 0
KPG1 130753Z 02012KT 07/M07 A3029 RMK A01 T00711070  RH  036%=      5-min Rain = 0
KPG1 130754Z 01013KT 07/M07 A3028 RMK A01 T00681071  RH  036%=      5-min Rain = 0
KPG1 130755Z 01013KT 07/M07 A3028 RMK A01 T00661071  RH  037%=      5-min Rain = 0
KPG1 130756Z 01012KT 07/M07 A3028 RMK A01 T00661071  RH  037%=      5-min Rain = 0
KPG1 130757Z 02012KT 07/M07 A3028 RMK A01 T00661070  RH  037%=      5-min Rain = 0
KPG1 130758Z 02013KT 07/M07 A3028 RMK A01 T00661070  RH  037%=      5-min Rain = 0
KPG1 130759Z 02013KT 07/M07 A3028 RMK A01 T00651070  RH  037%=      5-min Rain = 0
KPG1 130800Z 02012KT 07/M07 A3028 RMK A01 T00661070  RH  037%=      5-min Rain = 0
KPG1 130801Z 02014KT 07/M07 A3028 RMK A01 T00661070  RH  037%=      5-min Rain = 0
KPG1 130802Z 02012KT 07/M07 A3028 RMK A01 T00661071  RH  037%=      5-min Rain = 0
KPG1 130803Z 02012KT 07/M07 A3028 RMK A01 T00661071  RH  037%=      5-min Rain = 0
KPG1 130804Z 01010KT 07/M07 A3028 RMK A01 T00661072  RH  037%=      5-min Rain = 0
KPG1 130805Z 02012KT 07/M07 A3028 RMK A01 T00671073  RH  036%=      5-min Rain = 0
KPG1 130806Z 01012KT 07/M07 A3028 RMK A01 T00681073  RH  036%=      5-min Rain = 0
KPG1 130807Z 01012KT 07/M07 A3028 RMK A01 T00691074  RH  035%=      5-min Rain = 0
KPG1 130808Z 02012KT 07/M08 A3028 RMK A01 T00701075  RH  035%=      5-min Rain = 0
KPG1 130809Z 02009KT 07/M08 A3028 RMK A01 T00711075  RH  034%=      5-min Rain = 0
KPG1 130810Z 01011KT 07/M08 A3028 RMK A01 T00701075  RH  035%=      5-min Rain = 0
KPG1 130811Z 01010KT 07/M08 A3028 RMK A01 T00701076  RH  035%=      5-min Rain = 0
KPG1 130812Z 02011KT 07/M08 A3028 RMK A01 T00701076  RH  035%=      5-min Rain = 0
KPG1 130813Z 02011KT 07/M08 A3028 RMK A01 T00701076  RH  034%=      5-min Rain = 0
KPG1 130814Z 02010KT 07/M08 A3029 RMK A01 T00691076  RH  035%=      5-min Rain = 0
KPG1 130815Z 03011KT 07/M08 A3029 RMK A01 T00661076  RH  035%=      5-min Rain = 0
KPG1 130816Z 02010KT 07/M08 A3029 RMK A01 T00661075  RH  036%=      5-min Rain = 0
KPG1 130817Z 03010KT 07/M08 A3029 RMK A01 T00651076  RH  036%=      5-min Rain = 0
KPG1 130818Z 03010KT 07/M08 A3029 RMK A01 T00651076  RH  036%=      5-min Rain = 0
KPG1 130819Z 04008KT 07/M08 A3029 RMK A01 T00651076  RH  036%=      5-min Rain = 0
KPG1 130820Z 04008KT 06/M08 A3029 RMK A01 T00631076  RH  036%=      5-min Rain = 0
KPG1 130821Z 03008KT 06/M08 A3028 RMK A01 T00621075  RH  037%=      5-min Rain = 0
KPG1 130822Z 03010KT 06/M08 A3028 RMK A01 T00621075  RH  037%=      5-min Rain = 0
KPG1 130823Z 02009KT 06/M08 A3028 RMK A01 T00641075  RH  036%=      5-min Rain = 0
KPG1 130824Z 02010KT 07/M08 A3028 RMK A01 T00661075  RH  036%=      5-min Rain = 0
KPG1 130825Z 02010KT 07/M08 A3028 RMK A01 T00661075  RH  036%=      5-min Rain = 0
KPG1 130826Z 01010KT 07/M08 A3028 RMK A01 T00661076  RH  036%=      5-min Rain = 0
KPG1 130827Z 02010KT 07/M08 A3029 RMK A01 T00671076  RH  035%=      5-min Rain = 0
KPG1 130828Z 03009KT 07/M08 A3029 RMK A01 T00691076  RH  035%=      5-min Rain = 0
KPG1 130829Z 03009KT 07/M08 A3029 RMK A01 T00691076  RH  035%=      5-min Rain = 0
KPG1 130830Z 02009KT 07/M08 A3029 RMK A01 T00691076  RH  035%=      5-min Rain = 0
KPG1 130831Z 02009KT 07/M08 A3029 RMK A01 T00691077  RH  035%=      5-min Rain = 0
KPG1 130832Z 01008KT 07/M08 A3029 RMK A01 T00681077  RH  035%=      5-min Rain = 0
KPG1 130833Z 02008KT 07/M08 A3029 RMK A01 T00681077  RH  035%=      5-min Rain = 0
KPG1 130834Z 01007KT 07/M08 A3029 RMK A01 T00681078  RH  034%=      5-min Rain = 0
KPG1 130835Z 01006KT 07/M08 A3029 RMK A01 T00691078  RH  034%=      5-min Rain = 0
KPG1 130836Z 03007KT 07/M08 A3029 RMK A01 T00691079  RH  034%=      5-min Rain = 0
KPG1 130837Z 02007KT 07/M08 A3029 RMK A01 T00691079  RH  034%=      5-min Rain = 0
KPG1 130838Z 03007KT 07/M08 A3029 RMK A01 T00691080  RH  034%=      5-min Rain = 0
KPG1 130839Z 05008KT 07/M08 A3029 RMK A01 T00691080  RH  034%=      5-min Rain = 0
KPG1 130840Z 04008KT 07/M08 A3029 RMK A01 T00681081  RH  034%=      5-min Rain = 0
KPG1 130841Z 05010KT 07/M08 A3029 RMK A01 T00681081  RH  034%=      5-min Rain = 0
KPG1 130842Z 05011KT 07/M08 A303 RMK A01 T00691081  RH  033%=      5-min Rain = 0
KPG1 130843Z 05013KT 07/M08 A303 RMK A01 T00701082  RH  033%=      5-min Rain = 0
KPG1 130844Z 05012KT 07/M08 A303 RMK A01 T00711082  RH  033%=      5-min Rain = 0
KPG1 130845Z 05011KT 07/M08 A303 RMK A01 T00721081  RH  033%=      5-min Rain = 0
KPG1 130846Z 05011KT 07/M08 A3029 RMK A01 T00711082  RH  033%=      5-min Rain = 0
KPG1 130847Z 05011KT 07/M08 A3029 RMK A01 T00711082  RH  033%=      5-min Rain = 0
KPG1 130848Z 05011KT 07/M08 A3029 RMK A01 T00711082  RH  033%=      5-min Rain = 0
KPG1 130849Z 05012KT 07/M08 A303 RMK A01 T00711082  RH  033%=      5-min Rain = 0
KPG1 130850Z 05013KT 07/M08 A303 RMK A01 T00711082  RH  033%=      5-min Rain = 0
KPG1 130851Z 05013KT 07/M08 A303 RMK A01 T00711082  RH  033%=      5-min Rain = 0
KPG1 130852Z 05014KT 07/M08 A303 RMK A01 T00711082  RH  033%=      5-min Rain = 0
KPG1 130853Z 05015KT 07/M08 A303 RMK A01 T00711082  RH  033%=      5-min Rain = 0
KPG1 130854Z 05014KT 07/M08 A3031 RMK A01 T00711082  RH  033%=      5-min Rain = 0
KPG1 130855Z 05014KT 07/M08 A3031 RMK A01 T00711082  RH  033%=      5-min Rain = 0
KPG1 130856Z 05015KT 07/M08 A3031 RMK A01 T00711082  RH  033%=      5-min Rain = 0
KPG1 130857Z 05013KT 07/M08 A3031 RMK A01 T00701082  RH  033%=      5-min Rain = 0
KPG1 130858Z 05013KT 07/M08 A303 RMK A01 T00701082  RH  033%=      5-min Rain = 0
KPG1 130859Z 05015KT 07/M08 A303 RMK A01 T00701082  RH  033%=      5-min Rain = 0
KPG1 130900Z 05014KT 07/M08 A303 RMK A01 T00691081  RH  033%=      5-min Rain = 0
KPG1 130901Z 05014KT 07/M08 A303 RMK A01 T00681082  RH  033%=      5-min Rain = 0
KPG1 130902Z 05014KT 07/M08 A303 RMK A01 T00681082  RH  034%=      5-min Rain = 0
KPG1 130903Z 05015KT 07/M08 A303 RMK A01 T00681082  RH  034%=      5-min Rain = 0
KPG1 130904Z 05015KT 07/M08 A303 RMK A01 T00681081  RH  034%=      5-min Rain = 0
KPG1 130905Z 05015KT 07/M08 A303 RMK A01 T00681081  RH  034%=      5-min Rain = 0
KPG1 130906Z 05016KT 07/M08 A3031 RMK A01 T00681081  RH  034%=      5-min Rain = 0
KPG1 130907Z 05015KT 07/M08 A3031 RMK A01 T00681081  RH  034%=      5-min Rain = 0
KPG1 130908Z 04015KT 07/M08 A3031 RMK A01 T00681081  RH  034%=      5-min Rain = 0
KPG1 130909Z 05015KT 07/M08 A3031 RMK A01 T00671081  RH  034%=      5-min Rain = 0
KPG1 130910Z 04013KT 07/M08 A3031 RMK A01 T00671081  RH  034%=      5-min Rain = 0
KPG1 130911Z 04013KT 07/M08 A3031 RMK A01 T00671081  RH  034%=      5-min Rain = 0
KPG1 130912Z 04012KT 07/M08 A3031 RMK A01 T00661081  RH  034%=      5-min Rain = 0
KPG1 130913Z 04011KT 07/M08 A3031 RMK A01 T00651081  RH  034%=      5-min Rain = 0
KPG1 130914Z 03011KT 06/M08 A3031 RMK A01 T00641081  RH  035%=      5-min Rain = 0
KPG1 130915Z 03013KT 06/M08 A3031 RMK A01 T00621081  RH  035%=      5-min Rain = 0
KPG1 130916Z 03013KT 06/M08 A3031 RMK A01 T00601081  RH  036%=      5-min Rain = 0
KPG1 130917Z 03013KT 06/M08 A3031 RMK A01 T00591080  RH  036%=      5-min Rain = 0
KPG1 130918Z 03013KT 06/M08 A3031 RMK A01 T00581080  RH  036%=      5-min Rain = 0
KPG1 130919Z 03013KT 06/M08 A3031 RMK A01 T00581079  RH  037%=      5-min Rain = 0
KPG1 130920Z 03013KT 06/M08 A3031 RMK A01 T00581079  RH  037%=      5-min Rain = 0
KPG1 130921Z 03012KT 06/M08 A3031 RMK A01 T00591079  RH  036%=      5-min Rain = 0
KPG1 130922Z 02011KT 06/M08 A3031 RMK A01 T00581080  RH  036%=      5-min Rain = 0
KPG1 130923Z 02010KT 06/M08 A3031 RMK A01 T00571079  RH  037%=      5-min Rain = 0
KPG1 130924Z 02012KT 06/M08 A3031 RMK A01 T00561080  RH  037%=      5-min Rain = 0
KPG1 130925Z 03012KT 06/M08 A3031 RMK A01 T00551079  RH  037%=      5-min Rain = 0
KPG1 130926Z 03013KT 06/M08 A3031 RMK A01 T00551079  RH  038%=      5-min Rain = 0
KPG1 130927Z 04013KT 05/M08 A3032 RMK A01 T00541079  RH  038%=      5-min Rain = 0
KPG1 130928Z 03011KT 06/M08 A3032 RMK A01 T00551079  RH  038%=      5-min Rain = 0
KPG1 130929Z 04011KT 06/M08 A3032 RMK A01 T00561079  RH  037%=      5-min Rain = 0
KPG1 130930Z 03011KT 06/M08 A3032 RMK A01 T00581079  RH  037%=      5-min Rain = 0
KPG1 130931Z 03012KT 06/M08 A3032 RMK A01 T00561079  RH  037%=      5-min Rain = 0
KPG1 130932Z 03012KT 06/M08 A3031 RMK A01 T00551078  RH  038%=      5-min Rain = 0
KPG1 130933Z 03012KT 06/M08 A3031 RMK A01 T00551079  RH  038%=      5-min Rain = 0
KPG1 130934Z 03013KT 06/M08 A3031 RMK A01 T00551079  RH  037%=      5-min Rain = 0
KPG1 130935Z 03011KT 06/M08 A3031 RMK A01 T00551079  RH  037%=      5-min Rain = 0
KPG1 130936Z 04011KT 05/M08 A3032 RMK A01 T00541079  RH  038%=      5-min Rain = 0
KPG1 130937Z 03011KT 06/M08 A3032 RMK A01 T00551078  RH  038%=      5-min Rain = 0
KPG1 130938Z 04012KT 06/M08 A3032 RMK A01 T00551079  RH  037%=      5-min Rain = 0
KPG1 130939Z 04012KT 06/M08 A3032 RMK A01 T00561079  RH  037%=      5-min Rain = 0
KPG1 130940Z 04013KT 06/M08 A3032 RMK A01 T00561079  RH  037%=      5-min Rain = 0
KPG1 130941Z 04013KT 06/M08 A3032 RMK A01 T00571079  RH  037%=      5-min Rain = 0
KPG1 130942Z 04011KT 06/M08 A3032 RMK A01 T00591078  RH  037%=      5-min Rain = 0
KPG1 130943Z 04012KT 06/M08 A3032 RMK A01 T00591078  RH  037%=      5-min Rain = 0
KPG1 130944Z 04012KT 06/M08 A3032 RMK A01 T00591078  RH  037%=      5-min Rain = 0
KPG1 130945Z 03014KT 06/M08 A3032 RMK A01 T00591079  RH  037%=      5-min Rain = 0
KPG1 130946Z 03013KT 06/M08 A3032 RMK A01 T00601077  RH  037%=      5-min Rain = 0
KPG1 130947Z 02013KT 06/M08 A3032 RMK A01 T00601078  RH  036%=      5-min Rain = 0
KPG1 130948Z 02014KT 06/M08 A3032 RMK A01 T00571079  RH  037%=      5-min Rain = 0
KPG1 130949Z 03015KT 06/M08 A3032 RMK A01 T00551079  RH  037%=      5-min Rain = 0
KPG1 130950Z 03015KT 06/M08 A3032 RMK A01 T00551079  RH  038%=      5-min Rain = 0
KPG1 130951Z 03014KT 05/M08 A3032 RMK A01 T00541078  RH  038%=      5-min Rain = 0
KPG1 130952Z 03013KT 06/M08 A3032 RMK A01 T00551078  RH  038%=      5-min Rain = 0
KPG1 130953Z 03012KT 05/M08 A3032 RMK A01 T00541078  RH  038%=      5-min Rain = 0
KPG1 130954Z 03012KT 05/M08 A3032 RMK A01 T00531078  RH  038%=      5-min Rain = 0
KPG1 130955Z 03012KT 05/M08 A3032 RMK A01 T00531078  RH  038%=      5-min Rain = 0
KPG1 130956Z 03011KT 05/M08 A3032 RMK A01 T00531077  RH  039%=      5-min Rain = 0
KPG1 130957Z 03013KT 05/M08 A3032 RMK A01 T00521078  RH  039%=      5-min Rain = 0
KPG1 130958Z 03014KT 05/M08 A3032 RMK A01 T00501078  RH  039%=      5-min Rain = 0
KPG1 130959Z 03014KT 05/M08 A3032 RMK A01 T00501078  RH  039%=      5-min Rain = 0
KPG1 131000Z 03014KT 05/M08 A3032 RMK A01 T00501077  RH  039%=      5-min Rain = 0
KPG1 131001Z 03014KT 05/M08 A3032 RMK A01 T00491077  RH  039%=      5-min Rain = 0
KPG1 131002Z 03014KT 05/M08 A3032 RMK A01 T00491077  RH  040%=      5-min Rain = 0
KPG1 131003Z 02013KT 05/M08 A3032 RMK A01 T00491077  RH  039%=      5-min Rain = 0
KPG1 131004Z 03014KT 05/M08 A3032 RMK A01 T00491078  RH  039%=      5-min Rain = 0
KPG1 131005Z 03013KT 05/M08 A3032 RMK A01 T00491077  RH  039%=      5-min Rain = 0
KPG1 131006Z 03015KT 05/M08 A3032 RMK A01 T00491078  RH  040%=      5-min Rain = 0
KPG1 131007Z 03015KT 05/M08 A3032 RMK A01 T00491077  RH  040%=      5-min Rain = 0
KPG1 131008Z 03014KT 05/M08 A3032 RMK A01 T00491077  RH  040%=      5-min Rain = 0
KPG1 131009Z 03013KT 05/M08 A3033 RMK A01 T00491077  RH  040%=      5-min Rain = 0
KPG1 131010Z 03013KT 05/M08 A3033 RMK A01 T00491077  RH  040%=      5-min Rain = 0
KPG1 131011Z 02013KT 05/M08 A3033 RMK A01 T00491077  RH  040%=      5-min Rain = 0
KPG1 131012Z 02013KT 05/M08 A3033 RMK A01 T00501077  RH  040%=      5-min Rain = 0
KPG1 131013Z 02012KT 05/M08 A3033 RMK A01 T00511076  RH  039%=      5-min Rain = 0
KPG1 131014Z 03012KT 05/M08 A3033 RMK A01 T00521076  RH  039%=      5-min Rain = 0
KPG1 131015Z 03012KT 05/M08 A3033 RMK A01 T00511077  RH  039%=      5-min Rain = 0
KPG1 131016Z 03013KT 05/M08 A3033 RMK A01 T00501077  RH  039%=      5-min Rain = 0
KPG1 131017Z 03013KT 05/M08 A3033 RMK A01 T00501077  RH  039%=      5-min Rain = 0
KPG1 131018Z 03014KT 05/M08 A3033 RMK A01 T00501077  RH  039%=      5-min Rain = 0
KPG1 131019Z 03014KT 05/M08 A3033 RMK A01 T00501077  RH  039%=      5-min Rain = 0
KPG1 131020Z 03013KT 05/M08 A3033 RMK A01 T00501077  RH  039%=      5-min Rain = 0
KPG1 131021Z 03013KT 05/M08 A3033 RMK A01 T00501077  RH  039%=      5-min Rain = 0
KPG1 131022Z 02013KT 05/M08 A3033 RMK A01 T00491078  RH  039%=      5-min Rain = 0
KPG1 131023Z 03012KT 05/M08 A3033 RMK A01 T00501078  RH  039%=      5-min Rain = 0
KPG1 131024Z 02012KT 05/M08 A3033 RMK A01 T00501078  RH  039%=      5-min Rain = 0
KPG1 131025Z 02012KT 05/M08 A3033 RMK A01 T00501078  RH  039%=      5-min Rain = 0
KPG1 131026Z 02012KT 05/M08 A3033 RMK A01 T00501078  RH  039%=      5-min Rain = 0
KPG1 131027Z 02013KT 05/M08 A3033 RMK A01 T00501079  RH  039%=      5-min Rain = 0
KPG1 131028Z 02012KT 05/M08 A3033 RMK A01 T00521079  RH  038%=      5-min Rain = 0
KPG1 131029Z 02012KT 05/M08 A3033 RMK A01 T00521079  RH  038%=      5-min Rain = 0
KPG1 131030Z 02012KT 05/M08 A3033 RMK A01 T00501080  RH  038%=      5-min Rain = 0
KPG1 131031Z 02012KT 05/M08 A3033 RMK A01 T00501079  RH  039%=      5-min Rain = 0
KPG1 131032Z 02012KT 05/M08 A3033 RMK A01 T00501080  RH  039%=      5-min Rain = 0
KPG1 131033Z 03012KT 05/M08 A3033 RMK A01 T00501080  RH  039%=      5-min Rain = 0
KPG1 131034Z 03013KT 05/M08 A3033 RMK A01 T00491080  RH  039%=      5-min Rain = 0
KPG1 131035Z 02012KT 05/M08 A3033 RMK A01 T00481080  RH  039%=      5-min Rain = 0
KPG1 131036Z 02012KT 05/M08 A3033 RMK A01 T00491080  RH  039%=      5-min Rain = 0
KPG1 131037Z 02014KT 05/M08 A3033 RMK A01 T00491080  RH  039%=      5-min Rain = 0
KPG1 131038Z 02014KT 05/M08 A3033 RMK A01 T00511080  RH  038%=      5-min Rain = 0
KPG1 131039Z 02014KT 05/M08 A3033 RMK A01 T00521080  RH  038%=      5-min Rain = 0
KPG1 131040Z 03013KT 05/M08 A3033 RMK A01 T00531080  RH  038%=      5-min Rain = 0
KPG1 131041Z 03014KT 05/M08 A3033 RMK A01 T00521080  RH  038%=      5-min Rain = 0
KPG1 131042Z 03013KT 05/M08 A3033 RMK A01 T00501081  RH  038%=      5-min Rain = 0
KPG1 131043Z 03013KT 05/M08 A3033 RMK A01 T00491081  RH  039%=      5-min Rain = 0
KPG1 131044Z 03012KT 05/M08 A3033 RMK A01 T00481080  RH  039%=      5-min Rain = 0
KPG1 131045Z 03013KT 05/M08 A3034 RMK A01 T00471080  RH  039%=      5-min Rain = 0
KPG1 131046Z 03012KT 05/M08 A3034 RMK A01 T00471080  RH  039%=      5-min Rain = 0
KPG1 131047Z 03013KT 05/M08 A3034 RMK A01 T00461080  RH  039%=      5-min Rain = 0
KPG1 131048Z 03013KT 05/M08 A3034 RMK A01 T00461080  RH  040%=      5-min Rain = 0
KPG1 131049Z 03014KT 05/M08 A3034 RMK A01 T00461080  RH  040%=      5-min Rain = 0
KPG1 131050Z 03014KT 05/M08 A3034 RMK A01 T00461080  RH  040%=      5-min Rain = 0
KPG1 131051Z 03013KT 05/M08 A3034 RMK A01 T00461080  RH  039%=      5-min Rain = 0
KPG1 131052Z 03014KT 05/M08 A3034 RMK A01 T00461080  RH  039%=      5-min Rain = 0
KPG1 131053Z 03014KT 05/M08 A3034 RMK A01 T00461080  RH  039%=      5-min Rain = 0
KPG1 131054Z 03013KT 05/M08 A3034 RMK A01 T00461080  RH  039%=      5-min Rain = 0
KPG1 131055Z 02013KT 05/M08 A3034 RMK A01 T00471080  RH  039%=      5-min Rain = 0
KPG1 131056Z 02014KT 05/M08 A3034 RMK A01 T00471081  RH  039%=      5-min Rain = 0
KPG1 131057Z 02015KT 05/M08 A3034 RMK A01 T00491080  RH  039%=      5-min Rain = 0
KPG1 131058Z 02014KT 05/M08 A3034 RMK A01 T00511080  RH  038%=      5-min Rain = 0
KPG1 131059Z 03015KT 05/M08 A3034 RMK A01 T00521081  RH  038%=      5-min Rain = 0
KPG1 131100Z 04015KT 05/M08 A3034 RMK A01 T00501082  RH  038%=      5-min Rain = 0
KPG1 131101Z 03016KT 05/M08 A3034 RMK A01 T00481081  RH  038%=      5-min Rain = 0
KPG1 131102Z 03016KT 05/M08 A3034 RMK A01 T00491081  RH  038%=      5-min Rain = 0
KPG1 131103Z 03014KT 05/M08 A3035 RMK A01 T00501081  RH  038%=      5-min Rain = 0
KPG1 131104Z 03015KT 05/M08 A3035 RMK A01 T00501081  RH  038%=      5-min Rain = 0
KPG1 131105Z 03015KT 05/M08 A3035 RMK A01 T00501081  RH  038%=      5-min Rain = 0
KPG1 131106Z 03015KT 05/M08 A3035 RMK A01 T00491081  RH  038%=      5-min Rain = 0
KPG1 131107Z 03014KT 05/M08 A3035 RMK A01 T00491081  RH  039%=      5-min Rain = 0
KPG1 131108Z 03015KT 05/M08 A3035 RMK A01 T00481081  RH  039%=      5-min Rain = 0
KPG1 131109Z 03014KT 05/M08 A3035 RMK A01 T00481081  RH  039%=      5-min Rain = 0
KPG1 131110Z 03014KT 05/M08 A3035 RMK A01 T00481080  RH  039%=      5-min Rain = 0
KPG1 131111Z 03014KT 05/M08 A3035 RMK A01 T00471081  RH  039%=      5-min Rain = 0
KPG1 131112Z 03015KT 05/M08 A3035 RMK A01 T00461081  RH  039%=      5-min Rain = 0
KPG1 131113Z 03015KT 05/M08 A3035 RMK A01 T00461081  RH  039%=      5-min Rain = 0
KPG1 131114Z 03014KT 05/M08 A3035 RMK A01 T00461081  RH  039%=      5-min Rain = 0
KPG1 131115Z 03015KT 05/M08 A3035 RMK A01 T00461081  RH  039%=      5-min Rain = 0
KPG1 131116Z 03014KT 05/M08 A3035 RMK A01 T00451080  RH  040%=      5-min Rain = 0
KPG1 131117Z 03014KT 05/M08 A3035 RMK A01 T00451081  RH  040%=      5-min Rain = 0
KPG1 131118Z 03012KT 04/M08 A3035 RMK A01 T00441080  RH  040%=      5-min Rain = 0
KPG1 131119Z 03012KT 04/M08 A3035 RMK A01 T00441081  RH  040%=      5-min Rain = 0
KPG1 131120Z 03013KT 04/M08 A3035 RMK A01 T00441081  RH  040%=      5-min Rain = 0
KPG1 131121Z 03012KT 04/M08 A3035 RMK A01 T00431081  RH  040%=      5-min Rain = 0
KPG1 131122Z 04013KT 04/M08 A3035 RMK A01 T00431080  RH  040%=      5-min Rain = 0
KPG1 131123Z 04012KT 04/M08 A3035 RMK A01 T00431080  RH  040%=      5-min Rain = 0
KPG1 131124Z 05013KT 05/M08 A3035 RMK A01 T00471078  RH  040%=      5-min Rain = 0
KPG1 131125Z 05012KT 05/M08 A3035 RMK A01 T00501079  RH  039%=      5-min Rain = 0
KPG1 131126Z 05013KT 05/M08 A3035 RMK A01 T00511079  RH  038%=      5-min Rain = 0
KPG1 131127Z 05014KT 05/M08 A3035 RMK A01 T00511080  RH  038%=      5-min Rain = 0
KPG1 131128Z 05014KT 05/M08 A3035 RMK A01 T00521080  RH  038%=      5-min Rain = 0
KPG1 131129Z 05015KT 05/M08 A3035 RMK A01 T00541079  RH  038%=      5-min Rain = 0
KPG1 131130Z 05014KT 06/M08 A3035 RMK A01 T00561079  RH  037%=      5-min Rain = 0
KPG1 131131Z 05016KT 06/M08 A3035 RMK A01 T00571079  RH  037%=      5-min Rain = 0
KPG1 131132Z 06015KT 06/M08 A3035 RMK A01 T00581079  RH  037%=      5-min Rain = 0
KPG1 131133Z 06016KT 06/M08 A3035 RMK A01 T00591079  RH  036%=      5-min Rain = 0
KPG1 131134Z 05015KT 06/M08 A3035 RMK A01 T00601079  RH  036%=      5-min Rain = 0
KPG1 131135Z 06015KT 06/M08 A3035 RMK A01 T00601079  RH  036%=      5-min Rain = 0
KPG1 131136Z 05014KT 06/M08 A3035 RMK A01 T00601079  RH  036%=      5-min Rain = 0
KPG1 131137Z 05014KT 06/M08 A3035 RMK A01 T00601079  RH  036%=      5-min Rain = 0
KPG1 131138Z 05015KT 06/M08 A3035 RMK A01 T00601079  RH  036%=      5-min Rain = 0
KPG1 131139Z 05016KT 06/M08 A3035 RMK A01 T00601079  RH  036%=      5-min Rain = 0
KPG1 131140Z 05015KT 06/M08 A3035 RMK A01 T00601079  RH  036%=      5-min Rain = 0
KPG1 131141Z 05014KT 06/M08 A3035 RMK A01 T00601079  RH  036%=      5-min Rain = 0
KPG1 131142Z 05015KT 06/M08 A3035 RMK A01 T00601079  RH  036%=      5-min Rain = 0
KPG1 131143Z 05014KT 06/M08 A3035 RMK A01 T00601079  RH  036%=      5-min Rain = 0
KPG1 131144Z 05014KT 06/M08 A3035 RMK A01 T00601079  RH  036%=      5-min Rain = 0
KPG1 131145Z 05015KT 06/M08 A3035 RMK A01 T00601078  RH  036%=      5-min Rain = 0
KPG1 131146Z 05014KT 06/M08 A3035 RMK A01 T00601078  RH  036%=      5-min Rain = 0
KPG1 131147Z 05014KT 06/M08 A3035 RMK A01 T00591079  RH  036%=      5-min Rain = 0
KPG1 131148Z 06013KT 06/M08 A3035 RMK A01 T00591079  RH  037%=      5-min Rain = 0
KPG1 131149Z 05012KT 06/M08 A3035 RMK A01 T00581079  RH  037%=      5-min Rain = 0
KPG1 131150Z 05013KT 06/M08 A3035 RMK A01 T00571079  RH  037%=      5-min Rain = 0
KPG1 131151Z 05014KT 06/M08 A3035 RMK A01 T00571079  RH  037%=      5-min Rain = 0
KPG1 131152Z 05013KT 06/M08 A3035 RMK A01 T00571078  RH  037%=      5-min Rain = 0
KPG1 131153Z 05014KT 06/M08 A3035 RMK A01 T00571079  RH  037%=      5-min Rain = 0
KPG1 131154Z 05015KT 06/M08 A3036 RMK A01 T00561079  RH  037%=      5-min Rain = 0
KPG1 131155Z 05014KT 06/M08 A3035 RMK A01 T00561079  RH  037%=      5-min Rain = 0
KPG1 131156Z 05015KT 06/M08 A3035 RMK A01 T00551079  RH  037%=      5-min Rain = 0
KPG1 131157Z 05014KT 06/M08 A3035 RMK A01 T00551079  RH  037%=      5-min Rain = 0
KPG1 131158Z 05015KT 05/M08 A3036 RMK A01 T00541079  RH  038%=      5-min Rain = 0
KPG1 131159Z 05015KT 05/M08 A3036 RMK A01 T00541079  RH  038%=      5-min Rain = 0
KPG1 131200Z 05015KT 05/M08 A3036 RMK A01 T00541079  RH  038%=      5-min Rain = 0
KPG1 131201Z 04015KT 05/M08 A3036 RMK A01 T00531079  RH  038%=      5-min Rain = 0
KPG1 131202Z 05016KT 05/M08 A3036 RMK A01 T00521079  RH  038%=      5-min Rain = 0
KPG1 131203Z 04016KT 05/M08 A3036 RMK A01 T00521079  RH  038%=      5-min Rain = 0
KPG1 131204Z 05014KT 05/M08 A3036 RMK A01 T00521079  RH  038%=      5-min Rain = 0
KPG1 131205Z 05018KT 05/M08 A3036 RMK A01 T00521079  RH  038%=      5-min Rain = 0
KPG1 131206Z 05016KT 05/M08 A3036 RMK A01 T00511080  RH  038%=      5-min Rain = 0
KPG1 131207Z 05017KT 05/M08 A3036 RMK A01 T00511080  RH  038%=      5-min Rain = 0
KPG1 131208Z 05017KT 05/M08 A3036 RMK A01 T00511079  RH  038%=      5-min Rain = 0
KPG1 131209Z 05018KT 05/M08 A3036 RMK A01 T00511080  RH  038%=      5-min Rain = 0
KPG1 131210Z 06019KT 05/M08 A3036 RMK A01 T00491080  RH  039%=      5-min Rain = 0
KPG1 131211Z 06019KT 05/M08 A3036 RMK A01 T00481081  RH  039%=      5-min Rain = 0
KPG1 131212Z 06021KT 05/M08 A3036 RMK A01 T00461081  RH  039%=      5-min Rain = 0
KPG1 131213Z 06020KT 04/M08 A3036 RMK A01 T00441081  RH  040%=      5-min Rain = 0
KPG1 131214Z 06020KT 04/M08 A3036 RMK A01 T00421081  RH  040%=      5-min Rain = 0
KPG1 131215Z 06019KT 04/M08 A3036 RMK A01 T00411081  RH  041%=      5-min Rain = 0
KPG1 131216Z 06018KT 04/M08 A3036 RMK A01 T00401081  RH  041%=      5-min Rain = 0
KPG1 131217Z 06018KT 04/M08 A3036 RMK A01 T00391081  RH  041%=      5-min Rain = 0
KPG1 131218Z 06018KT 04/M08 A3036 RMK A01 T00381080  RH  042%=      5-min Rain = 0
KPG1 131219Z 06019KT 04/M08 A3036 RMK A01 T00381080  RH  042%=      5-min Rain = 0
KPG1 131220Z 06021KT 04/M08 A3036 RMK A01 T00371081  RH  042%=      5-min Rain = 0
KPG1 131221Z 06019KT 04/M08 A3037 RMK A01 T00371081  RH  042%=      5-min Rain = 0
KPG1 131222Z 06020KT 04/M08 A3037 RMK A01 T00371080  RH  042%=      5-min Rain = 0
KPG1 131223Z 06021KT 04/M08 A3037 RMK A01 T00371080  RH  042%=      5-min Rain = 0
KPG1 131224Z 05021KT 04/M08 A3037 RMK A01 T00371080  RH  042%=      5-min Rain = 0
KPG1 131225Z 05020KT 04/M08 A3037 RMK A01 T00361081  RH  042%=      5-min Rain = 0
KPG1 131226Z 06020KT 04/M08 A3037 RMK A01 T00351081  RH  042%=      5-min Rain = 0
KPG1 131227Z 05019KT 04/M08 A3037 RMK A01 T00351081  RH  043%=      5-min Rain = 0
KPG1 131228Z 04019KT 03/M08 A3037 RMK A01 T00331082  RH  043%=      5-min Rain = 0
KPG1 131229Z 04018KT 03/M08 A3037 RMK A01 T00311082  RH  043%=      5-min Rain = 0
KPG1 131230Z 04017KT 03/M08 A3037 RMK A01 T00291082  RH  044%=      5-min Rain = 0
KPG1 131231Z 04016KT 03/M08 A3037 RMK A01 T00271082  RH  045%=      5-min Rain = 0
KPG1 131232Z 04017KT 03/M08 A3037 RMK A01 T00261082  RH  045%=      5-min Rain = 0
KPG1 131233Z 04017KT 03/M08 A3037 RMK A01 T00261081  RH  045%=      5-min Rain = 0
KPG1 131234Z 04016KT 03/M08 A3038 RMK A01 T00271080  RH  045%=      5-min Rain = 0
KPG1 131235Z 04014KT 03/M08 A3038 RMK A01 T00271080  RH  045%=      5-min Rain = 0
KPG1 131236Z 04017KT 03/M08 A3038 RMK A01 T00271081  RH  045%=      5-min Rain = 0
KPG1 131237Z 04015KT 03/M08 A3038 RMK A01 T00271080  RH  045%=      5-min Rain = 0
KPG1 131238Z 04016KT 03/M08 A3038 RMK A01 T00281080  RH  045%=      5-min Rain = 0
KPG1 131239Z 03015KT 03/M08 A3038 RMK A01 T00281081  RH  045%=      5-min Rain = 0
KPG1 131240Z 04014KT 03/M08 A3038 RMK A01 T00261082  RH  045%=      5-min Rain = 0
KPG1 131241Z 03016KT 02/M08 A3038 RMK A01 T00241082  RH  045%=      5-min Rain = 0
KPG1 131242Z 04015KT 02/M08 A3038 RMK A01 T00231082  RH  046%=      5-min Rain = 0
KPG1 131243Z 04015KT 02/M08 A3038 RMK A01 T00241081  RH  046%=      5-min Rain = 0
KPG1 131244Z 05015KT 03/M08 A3039 RMK A01 T00251081  RH  045%=      5-min Rain = 0
KPG1 131245Z 04013KT 03/M08 A3039 RMK A01 T00251081  RH  045%=      5-min Rain = 0
KPG1 131246Z 04015KT 03/M08 A3039 RMK A01 T00261081  RH  045%=      5-min Rain = 0
KPG1 131247Z 04016KT 03/M08 A3039 RMK A01 T00251081  RH  045%=      5-min Rain = 0
KPG1 131248Z 05016KT 03/M08 A3039 RMK A01 T00251082  RH  045%=      5-min Rain = 0
KPG1 131249Z 05017KT 03/M08 A3039 RMK A01 T00261082  RH  045%=      5-min Rain = 0
KPG1 131250Z 04015KT 03/M08 A3039 RMK A01 T00261082  RH  045%=      5-min Rain = 0
KPG1 131251Z 05016KT 03/M08 A3039 RMK A01 T00261082  RH  045%=      5-min Rain = 0
KPG1 131252Z 05014KT 03/M08 A3039 RMK A01 T00261083  RH  044%=      5-min Rain = 0
KPG1 131253Z 04015KT 03/M08 A3039 RMK A01 T00261083  RH  044%=      5-min Rain = 0
KPG1 131254Z 05016KT 03/M08 A3039 RMK A01 T00261084  RH  044%=      5-min Rain = 0
KPG1 131255Z 05015KT 03/M08 A3039 RMK A01 T00261084  RH  044%=      5-min Rain = 0
KPG1 131256Z 05015KT 03/M09 A3039 RMK A01 T00251085  RH  044%=      5-min Rain = 0
KPG1 131257Z 05016KT 03/M09 A3039 RMK A01 T00261085  RH  044%=      5-min Rain = 0
KPG1 131258Z 05016KT 03/M09 A3039 RMK A01 T00261085  RH  044%=      5-min Rain = 0
KPG1 131259Z 05016KT 03/M09 A3039 RMK A01 T00261085  RH  044%=      5-min Rain = 0
KPG1 131300Z 05016KT 03/M09 A3039 RMK A01 T00261085  RH  044%=      5-min Rain = 0
KPG1 131301Z 05016KT 03/M09 A304 RMK A01 T00251085  RH  044%=      5-min Rain = 0
KPG1 131302Z 05018KT 03/M09 A304 RMK A01 T00251085  RH  044%=      5-min Rain = 0
KPG1 131303Z 04018KT 03/M09 A304 RMK A01 T00251086  RH  044%=      5-min Rain = 0
KPG1 131304Z 04017KT 03/M09 A304 RMK A01 T00251086  RH  044%=      5-min Rain = 0
KPG1 131305Z 05017KT 03/M09 A304 RMK A01 T00251086  RH  044%=      5-min Rain = 0
KPG1 131306Z 05016KT 03/M09 A304 RMK A01 T00251087  RH  044%=      5-min Rain = 0
KPG1 131307Z 05018KT 02/M09 A304 RMK A01 T00241087  RH  044%=      5-min Rain = 0
KPG1 131308Z 05016KT 02/M09 A304 RMK A01 T00241087  RH  044%=      5-min Rain = 0
KPG1 131309Z 05016KT 02/M09 A304 RMK A01 T00241087  RH  044%=      5-min Rain = 0
KPG1 131310Z 04016KT 02/M09 A304 RMK A01 T00241087  RH  044%=      5-min Rain = 0
KPG1 131311Z 04016KT 02/M09 A304 RMK A01 T00241087  RH  044%=      5-min Rain = 0
KPG1 131312Z 04014KT 02/M09 A304 RMK A01 T00241088  RH  044%=      5-min Rain = 0
KPG1 131313Z 04016KT 02/M09 A304 RMK A01 T00231088  RH  044%=      5-min Rain = 0
KPG1 131314Z 04016KT 02/M09 A304 RMK A01 T00231088  RH  044%=      5-min Rain = 0
KPG1 131315Z 04016KT 02/M09 A304 RMK A01 T00231088  RH  044%=      5-min Rain = 0
KPG1 131316Z 04016KT 02/M09 A3041 RMK A01 T00241088  RH  043%=      5-min Rain = 0
KPG1 131317Z 03017KT 02/M09 A3041 RMK A01 T00231089  RH  043%=      5-min Rain = 0
KPG1 131318Z 04016KT 02/M09 A3041 RMK A01 T00231089  RH  043%=      5-min Rain = 0
KPG1 131319Z 03017KT 02/M09 A3041 RMK A01 T00231089  RH  043%=      5-min Rain = 0
KPG1 131320Z 03017KT 02/M09 A3041 RMK A01 T00231089  RH  043%=      5-min Rain = 0
KPG1 131321Z 03017KT 02/M09 A3041 RMK A01 T00231089  RH  043%=      5-min Rain = 0
KPG1 131322Z 04017KT 02/M09 A3041 RMK A01 T00231089  RH  043%=      5-min Rain = 0
KPG1 131323Z 03017KT 02/M09 A3041 RMK A01 T00231089  RH  043%=      5-min Rain = 0
KPG1 131324Z 04017KT 02/M09 A3041 RMK A01 T00231089  RH  043%=      5-min Rain = 0
KPG1 131325Z 04017KT 02/M09 A3041 RMK A01 T00231089  RH  043%=      5-min Rain = 0
KPG1 131326Z 04016KT 02/M09 A3041 RMK A01 T00231089  RH  043%=      5-min Rain = 0
KPG1 131327Z 04017KT 02/M09 A3042 RMK A01 T00221089  RH  044%=      5-min Rain = 0
KPG1 131328Z 03015KT 02/M09 A3042 RMK A01 T00221089  RH  044%=      5-min Rain = 0
KPG1 131329Z 03015KT 02/M09 A3042 RMK A01 T00211089  RH  044%=      5-min Rain = 0
KPG1 131330Z 04013KT 02/M09 A3042 RMK A01 T00201089  RH  044%=      5-min Rain = 0
KPG1 131331Z 04013KT 02/M09 A3042 RMK A01 T00191089  RH  045%=      5-min Rain = 0
KPG1 131332Z 04015KT 02/M09 A3042 RMK A01 T00181088  RH  045%=      5-min Rain = 0
KPG1 131333Z 04016KT 02/M09 A3042 RMK A01 T00181088  RH  045%=      5-min Rain = 0
KPG1 131334Z 04016KT 02/M09 A3042 RMK A01 T00181088  RH  045%=      5-min Rain = 0
KPG1 131335Z 04016KT 02/M09 A3042 RMK A01 T00181088  RH  045%=      5-min Rain = 0
KPG1 131336Z 04017KT 02/M09 A3042 RMK A01 T00191088  RH  045%=      5-min Rain = 0
KPG1 131337Z 04017KT 02/M09 A3042 RMK A01 T00191088  RH  045%=      5-min Rain = 0
KPG1 131338Z 04017KT 02/M09 A3042 RMK A01 T00201089  RH  044%=      5-min Rain = 0
KPG1 131339Z 04017KT 02/M09 A3042 RMK A01 T00211089  RH  044%=      5-min Rain = 0
KPG1 131340Z 04017KT 02/M09 A3042 RMK A01 T00211090  RH  044%=      5-min Rain = 0
KPG1 131341Z 04017KT 02/M09 A3042 RMK A01 T00211090  RH  044%=      5-min Rain = 0
KPG1 131342Z 04016KT 02/M09 A3042 RMK A01 T00211090  RH  044%=      5-min Rain = 0
KPG1 131343Z 04015KT 02/M09 A3042 RMK A01 T00201090  RH  044%=      5-min Rain = 0
KPG1 131344Z 04014KT 02/M09 A3042 RMK A01 T00201090  RH  044%=      5-min Rain = 0
KPG1 131345Z 04014KT 02/M09 A3042 RMK A01 T00191090  RH  044%=      5-min Rain = 0
KPG1 131346Z 03015KT 02/M09 A3042 RMK A01 T00181090  RH  045%=      5-min Rain = 0
KPG1 131347Z 03013KT 02/M09 A3042 RMK A01 T00181089  RH  045%=      5-min Rain = 0
KPG1 131348Z 03015KT 02/M09 A3042 RMK A01 T00171089  RH  045%=      5-min Rain = 0
KPG1 131349Z 03014KT 02/M09 A3043 RMK A01 T00151089  RH  046%=      5-min Rain = 0
KPG1 131350Z 03014KT 01/M09 A3043 RMK A01 T00141089  RH  047%=      5-min Rain = 0
KPG1 131351Z 03014KT 01/M09 A3043 RMK A01 T00131088  RH  047%=      5-min Rain = 0
KPG1 131352Z 03014KT 01/M09 A3043 RMK A01 T00121087  RH  047%=      5-min Rain = 0
KPG1 131353Z 03015KT 01/M09 A3043 RMK A01 T00121087  RH  048%=      5-min Rain = 0
KPG1 131354Z 03014KT 01/M09 A3043 RMK A01 T00121087  RH  048%=      5-min Rain = 0
KPG1 131355Z 02012KT 01/M09 A3043 RMK A01 T00121087  RH  048%=      5-min Rain = 0
KPG1 131356Z 02016KT 01/M09 A3043 RMK A01 T00121087  RH  048%=      5-min Rain = 0
KPG1 131357Z 02016KT 01/M09 A3043 RMK A01 T00141087  RH  047%=      5-min Rain = 0
KPG1 131358Z 02017KT 02/M09 A3043 RMK A01 T00151088  RH  046%=      5-min Rain = 0
KPG1 131359Z 02017KT 02/M09 A3043 RMK A01 T00161089  RH  046%=      5-min Rain = 0
KPG1 131400Z 02016KT 02/M09 A3044 RMK A01 T00161090  RH  045%=      5-min Rain = 0
KPG1 131401Z 02014KT 02/M09 A3044 RMK A01 T00161090  RH  045%=      5-min Rain = 0
KPG1 131402Z 03012KT 02/M09 A3044 RMK A01 T00151091  RH  045%=      5-min Rain = 0
KPG1 131403Z 03014KT 01/M09 A3044 RMK A01 T00141091  RH  046%=      5-min Rain = 0
KPG1 131404Z 03016KT 01/M09 A3044 RMK A01 T00131091  RH  046%=      5-min Rain = 0
KPG1 131405Z 03015KT 01/M09 A3044 RMK A01 T00131092  RH  045%=      5-min Rain = 0
KPG1 131406Z 04014KT 01/M09 A3044 RMK A01 T00141093  RH  045%=      5-min Rain = 0
KPG1 131407Z 04015KT 01/M09 A3044 RMK A01 T00141093  RH  045%=      5-min Rain = 0
KPG1 131408Z 04015KT 01/M09 A3044 RMK A01 T00141094  RH  044%=      5-min Rain = 0
KPG1 131409Z 04017KT 02/M09 A3044 RMK A01 T00151094  RH  044%=      5-min Rain = 0
KPG1 131410Z 04019KT 02/M10 A3044 RMK A01 T00151095  RH  044%=      5-min Rain = 0
KPG1 131411Z 04017KT 02/M10 A3044 RMK A01 T00161096  RH  043%=      5-min Rain = 0
KPG1 131412Z 04018KT 02/M10 A3044 RMK A01 T00161097  RH  043%=      5-min Rain = 0
KPG1 131413Z 04017KT 02/M10 A3044 RMK A01 T00161097  RH  043%=      5-min Rain = 0
KPG1 131414Z 04018KT 02/M10 A3045 RMK A01 T00161097  RH  043%=      5-min Rain = 0
KPG1 131415Z 04016KT 02/M10 A3045 RMK A01 T00161098  RH  043%=      5-min Rain = 0
KPG1 131416Z 04018KT 02/M10 A3045 RMK A01 T00161097  RH  043%=      5-min Rain = 0
KPG1 131417Z 04016KT 02/M10 A3045 RMK A01 T00161098  RH  043%=      5-min Rain = 0
KPG1 131418Z 04016KT 02/M10 A3045 RMK A01 T00151098  RH  043%=      5-min Rain = 0
KPG1 131419Z 04017KT 02/M10 A3045 RMK A01 T00151098  RH  043%=      5-min Rain = 0
KPG1 131420Z 03017KT 02/M10 A3045 RMK A01 T00151098  RH  043%=      5-min Rain = 0
KPG1 131421Z 03017KT 02/M10 A3045 RMK A01 T00151097  RH  043%=      5-min Rain = 0
KPG1 131422Z 04016KT 02/M10 A3045 RMK A01 T00151098  RH  043%=      5-min Rain = 0
KPG1 131423Z 04016KT 02/M10 A3045 RMK A01 T00151098  RH  043%=      5-min Rain = 0
KPG1 131424Z 04017KT 02/M10 A3045 RMK A01 T00161099  RH  042%=      5-min Rain = 0
KPG1 131425Z 04016KT 02/M10 A3045 RMK A01 T00161099  RH  042%=      5-min Rain = 0
KPG1 131426Z 04018KT 02/M10 A3045 RMK A01 T00171099  RH  042%=      5-min Rain = 0
KPG1 131427Z 04017KT 02/M10 A3045 RMK A01 T00181099  RH  041%=      5-min Rain = 0
KPG1 131428Z 04016KT 02/M10 A3045 RMK A01 T00181100  RH  041%=      5-min Rain = 0
KPG1 131429Z 04017KT 02/M10 A3045 RMK A01 T00181099  RH  041%=      5-min Rain = 0
KPG1 131430Z 04016KT 02/M10 A3045 RMK A01 T00181100  RH  041%=      5-min Rain = 0
KPG1 131431Z 04017KT 02/M10 A3045 RMK A01 T00191100  RH  041%=      5-min Rain = 0
KPG1 131432Z 04016KT 02/M10 A3045 RMK A01 T00191100  RH  041%=      5-min Rain = 0
KPG1 131433Z 04017KT 02/M10 A3045 RMK A01 T00201100  RH  041%=      5-min Rain = 0
KPG1 131434Z 04017KT 02/M10 A3045 RMK A01 T00201100  RH  041%=      5-min Rain = 0
KPG1 131435Z 04016KT 02/M10 A3045 RMK A01 T00201100  RH  041%=      5-min Rain = 0
KPG1 131436Z 04016KT 02/M10 A3045 RMK A01 T00201100  RH  041%=      5-min Rain = 0
KPG1 131437Z 04015KT 02/M10 A3045 RMK A01 T00201100  RH  041%=      5-min Rain = 0
KPG1 131438Z 04014KT 02/M10 A3045 RMK A01 T00201100  RH  041%=      5-min Rain = 0
KPG1 131439Z 04014KT 02/M10 A3045 RMK A01 T00201100  RH  041%=      5-min Rain = 0
KPG1 131440Z 04014KT 02/M10 A3045 RMK A01 T00201100  RH  041%=      5-min Rain = 0
KPG1 131441Z 04014KT 02/M10 A3045 RMK A01 T00201100  RH  041%=      5-min Rain = 0
KPG1 131442Z 04016KT 02/M10 A3045 RMK A01 T00201100  RH  041%=      5-min Rain = 0
KPG1 131443Z 04015G20KT 02/M10 A3045 RMK A01 T00211100  RH  041%=      5-min Rain = 0
KPG1 131444Z 04016KT 02/M10 A3045 RMK A01 T00211100  RH  040%=      5-min Rain = 0
KPG1 131445Z 04016KT 02/M10 A3045 RMK A01 T00211100  RH  040%=      5-min Rain = 0
KPG1 131446Z 04017KT 02/M10 A3045 RMK A01 T00221100  RH  040%=      5-min Rain = 0
KPG1 131447Z 04019KT 02/M10 A3045 RMK A01 T00221101  RH  040%=      5-min Rain = 0
KPG1 131448Z 03019KT 02/M10 A3045 RMK A01 T00231101  RH  039%=      5-min Rain = 0
KPG1 131449Z 04019KT 02/M10 A3045 RMK A01 T00231101  RH  039%=      5-min Rain = 0
KPG1 131450Z 04019KT 02/M10 A3045 RMK A01 T00241101  RH  039%=      5-min Rain = 0
KPG1 131451Z 04020KT 02/M10 A3045 RMK A01 T00241101  RH  039%=      5-min Rain = 0
KPG1 131452Z 04020KT 02/M10 A3045 RMK A01 T00241101  RH  039%=      5-min Rain = 0
KPG1 131453Z 04020KT 02/M10 A3045 RMK A01 T00241101  RH  039%=      5-min Rain = 0
KPG1 131454Z 04021KT 02/M10 A3045 RMK A01 T00231101  RH  039%=      5-min Rain = 0
KPG1 131455Z 04020KT 02/M10 A3045 RMK A01 T00231101  RH  039%=      5-min Rain = 0
KPG1 131456Z 04020KT 02/M10 A3046 RMK A01 T00231101  RH  039%=      5-min Rain = 0
KPG1 131457Z 04020KT 02/M10 A3046 RMK A01 T00231101  RH  039%=      5-min Rain = 0
KPG1 131458Z 04018KT 02/M10 A3046 RMK A01 T00241100  RH  040%=      5-min Rain = 0
KPG1 131459Z 04020KT 02/M10 A3046 RMK A01 T00241100  RH  040%=      5-min Rain = 0
KPG1 131500Z 04019KT 02/M10 A3046 RMK A01 T00231100  RH  040%=      5-min Rain = 0
KPG1 131501Z 04018KT 02/M10 A3046 RMK A01 T00231100  RH  040%=      5-min Rain = 0
KPG1 131502Z 04018KT 02/M10 A3046 RMK A01 T00241099  RH  040%=      5-min Rain = 0
KPG1 131503Z 03018KT 02/M10 A3046 RMK A01 T00241100  RH  039%=      5-min Rain = 0
KPG1 131504Z 04019KT 03/M10 A3046 RMK A01 T00251099  RH  039%=      5-min Rain = 0
KPG1 131505Z 04020KT 03/M10 A3046 RMK A01 T00261100  RH  039%=      5-min Rain = 0
KPG1 131506Z 03020KT 03/M10 A3046 RMK A01 T00261100  RH  039%=      5-min Rain = 0
KPG1 131507Z 04019KT 03/M10 A3047 RMK A01 T00261100  RH  039%=      5-min Rain = 0
KPG1 131508Z 03020KT 03/M10 A3047 RMK A01 T00271100  RH  039%=      5-min Rain = 0
KPG1 131509Z 04018KT 03/M10 A3047 RMK A01 T00281100  RH  038%=      5-min Rain = 0
KPG1 131510Z 04019KT 03/M10 A3047 RMK A01 T00281100  RH  038%=      5-min Rain = 0
KPG1 131511Z 04018KT 03/M10 A3047 RMK A01 T00291100  RH  038%=      5-min Rain = 0
KPG1 131512Z 04018KT 03/M10 A3047 RMK A01 T00291101  RH  038%=      5-min Rain = 0
KPG1 131513Z 04018KT 03/M10 A3047 RMK A01 T00291100  RH  038%=      5-min Rain = 0
KPG1 131514Z 04017KT 03/M10 A3047 RMK A01 T00301100  RH  038%=      5-min Rain = 0
KPG1 131515Z 04019KT 03/M10 A3047 RMK A01 T00301101  RH  038%=      5-min Rain = 0
KPG1 131516Z 04017KT 03/M10 A3048 RMK A01 T00301101  RH  037%=      5-min Rain = 0
KPG1 131517Z 04017KT 03/M10 A3048 RMK A01 T00301101  RH  037%=      5-min Rain = 0
KPG1 131518Z 04017KT 03/M10 A3048 RMK A01 T00311102  RH  037%=      5-min Rain = 0
KPG1 131519Z 04018KT 03/M10 A3048 RMK A01 T00311102  RH  037%=      5-min Rain = 0
KPG1 131520Z 04016KT 03/M10 A3048 RMK A01 T00311102  RH  037%=      5-min Rain = 0
KPG1 131521Z 04016KT 03/M10 A3048 RMK A01 T00321101  RH  037%=      5-min Rain = 0
KPG1 131522Z 03016KT 03/M10 A3048 RMK A01 T00331101  RH  037%=      5-min Rain = 0
KPG1 131523Z 04017KT 03/M10 A3048 RMK A01 T00331101  RH  037%=      5-min Rain = 0
KPG1 131524Z 03016KT 03/M10 A3048 RMK A01 T00341101  RH  037%=      5-min Rain = 0
KPG1 131525Z 04016KT 03/M10 A3048 RMK A01 T00341101  RH  037%=      5-min Rain = 0
KPG1 131526Z 04014KT 03/M10 A3048 RMK A01 T00341101  RH  037%=      5-min Rain = 0
KPG1 131527Z 03014KT 04/M10 A3048 RMK A01 T00361100  RH  036%=      5-min Rain = 0
KPG1 131528Z 03018KT 04/M10 A3048 RMK A01 T00371100  RH  036%=      5-min Rain = 0
KPG1 131529Z 04017KT 04/M10 A3048 RMK A01 T00371101  RH  036%=      5-min Rain = 0
KPG1 131530Z 04016KT 04/M10 A3048 RMK A01 T00361102  RH  036%=      5-min Rain = 0
KPG1 131531Z 03017KT 04/M10 A3048 RMK A01 T00361103  RH  036%=      5-min Rain = 0
KPG1 131532Z 04016KT 04/M10 A3048 RMK A01 T00361102  RH  036%=      5-min Rain = 0
KPG1 131533Z 04018KT 04/M10 A3049 RMK A01 T00361102  RH  036%=      5-min Rain = 0
KPG1 131534Z 04018KT 04/M10 A3049 RMK A01 T00371101  RH  036%=      5-min Rain = 0
KPG1 131535Z 03018KT 04/M10 A3049 RMK A01 T00371103  RH  035%=      5-min Rain = 0
KPG1 131536Z 04017KT 04/M10 A3049 RMK A01 T00381102  RH  035%=      5-min Rain = 0
KPG1 131537Z 04017KT 04/M10 A3049 RMK A01 T00381102  RH  035%=      5-min Rain = 0
KPG1 131538Z 04018KT 04/M10 A3049 RMK A01 T00391102  RH  035%=      5-min Rain = 0
KPG1 131539Z 04017KT 04/M10 A3049 RMK A01 T00391102  RH  035%=      5-min Rain = 0
KPG1 131540Z 03018KT 04/M10 A3049 RMK A01 T00401102  RH  035%=      5-min Rain = 0
KPG1 131541Z 04017KT 04/M10 A3049 RMK A01 T00401102  RH  035%=      5-min Rain = 0
KPG1 131542Z 04018KT 04/M10 A3049 RMK A01 T00401102  RH  035%=      5-min Rain = 0
KPG1 131543Z 04018KT 04/M10 A3049 RMK A01 T00401102  RH  035%=      5-min Rain = 0
KPG1 131544Z 04017G22KT 04/M10 A3049 RMK A01 T00401103  RH  034%=      5-min Rain = 0
KPG1 131545Z 04019KT 04/M10 A3049 RMK A01 T00411103  RH  034%=      5-min Rain = 0
KPG1 131546Z 04018KT 04/M10 A3049 RMK A01 T00401103  RH  034%=      5-min Rain = 0
KPG1 131547Z 03019KT 04/M10 A3049 RMK A01 T00401103  RH  034%=      5-min Rain = 0
KPG1 131548Z 04017KT 04/M10 A3049 RMK A01 T00411103  RH  034%=      5-min Rain = 0
KPG1 131549Z 04017KT 04/M10 A3049 RMK A01 T00411102  RH  034%=      5-min Rain = 0
KPG1 131550Z 04016G21KT 04/M10 A3049 RMK A01 T00421101  RH  034%=      5-min Rain = 0
KPG1 131551Z 04018KT 04/M10 A3049 RMK A01 T00441101  RH  034%=      5-min Rain = 0
KPG1 131552Z 03019KT 04/M10 A3049 RMK A01 T00441101  RH  034%=      5-min Rain = 0
KPG1 131553Z 04016KT 04/M10 A3049 RMK A01 T00441102  RH  034%=      5-min Rain = 0
KPG1 131554Z 04020KT 05/M10 A3049 RMK A01 T00451101  RH  034%=      5-min Rain = 0
KPG1 131555Z 03018KT 05/M10 A3049 RMK A01 T00461101  RH  034%=      5-min Rain = 0
KPG1 131556Z 04018KT 05/M10 A3049 RMK A01 T00461101  RH  034%=      5-min Rain = 0
KPG1 131557Z 04020KT 05/M10 A3049 RMK A01 T00461101  RH  034%=      5-min Rain = 0
KPG1 131558Z 04020KT 05/M10 A3049 RMK A01 T00471101  RH  033%=      5-min Rain = 0
KPG1 131559Z 04020KT 05/M10 A3049 RMK A01 T00471101  RH  033%=      5-min Rain = 0
KPG1 131600Z 04020KT 05/M10 A3049 RMK A01 T00461102  RH  033%=      5-min Rain = 0
KPG1 131601Z 04018KT 05/M10 A3049 RMK A01 T00471102  RH  033%=      5-min Rain = 0
KPG1 131602Z 04019KT 05/M10 A3049 RMK A01 T00471102  RH  033%=      5-min Rain = 0
KPG1 131603Z 04019KT 05/M10 A3049 RMK A01 T00481102  RH  033%=      5-min Rain = 0
KPG1 131604Z 03019KT 05/M10 A3049 RMK A01 T00481102  RH  033%=      5-min Rain = 0
KPG1 131605Z 03019KT 05/M10 A3049 RMK A01 T00491102  RH  033%=      5-min Rain = 0
KPG1 131606Z 03020KT 05/M10 A3049 RMK A01 T00491102  RH  033%=      5-min Rain = 0
KPG1 131607Z 04018KT 05/M10 A3049 RMK A01 T00501102  RH  032%=      5-min Rain = 0
KPG1 131608Z 05020KT 05/M10 A3049 RMK A01 T00491102  RH  032%=      5-min Rain = 0
KPG1 131609Z 04017KT 05/M10 A3049 RMK A01 T00491102  RH  032%=      5-min Rain = 0
KPG1 131610Z 03017KT 05/M10 A3049 RMK A01 T00511101  RH  033%=      5-min Rain = 0
KPG1 131611Z 03016KT 05/M10 A3049 RMK A01 T00521101  RH  032%=      5-min Rain = 0
KPG1 131612Z 04019KT 05/M10 A3049 RMK A01 T00541100  RH  032%=      5-min Rain = 0
KPG1 131613Z 04019KT 05/M10 A3049 RMK A01 T00541101  RH  032%=      5-min Rain = 0
KPG1 131614Z 04017KT 05/M10 A3049 RMK A01 T00531102  RH  032%=      5-min Rain = 0
KPG1 131615Z 03018KT 05/M10 A3049 RMK A01 T00521102  RH  032%=      5-min Rain = 0
KPG1 131616Z 04018KT 05/M10 A3049 RMK A01 T00521102  RH  032%=      5-min Rain = 0
KPG1 131617Z 04017KT 05/M10 A3049 RMK A01 T00521102  RH  032%=      5-min Rain = 0
KPG1 131618Z 04018KT 05/M10 A3049 RMK A01 T00521102  RH  032%=      5-min Rain = 0
KPG1 131619Z 04018KT 05/M10 A3049 RMK A01 T00521102  RH  032%=      5-min Rain = 0
KPG1 131620Z 04016KT 05/M10 A3049 RMK A01 T00521102  RH  032%=      5-min Rain = 0
KPG1 131621Z 04015KT 05/M10 A3049 RMK A01 T00521102  RH  032%=      5-min Rain = 0
KPG1 131622Z 03017KT 05/M10 A3049 RMK A01 T00521102  RH  032%=      5-min Rain = 0
KPG1 131623Z 04016KT 05/M10 A3049 RMK A01 T00531102  RH  032%=      5-min Rain = 0
KPG1 131624Z 04017KT 05/M10 A3049 RMK A01 T00531102  RH  032%=      5-min Rain = 0
KPG1 131625Z 04016KT 05/M10 A3049 RMK A01 T00531102  RH  032%=      5-min Rain = 0
KPG1 131626Z 04018KT 05/M10 A305 RMK A01 T00531101  RH  032%=      5-min Rain = 0
KPG1 131627Z 03014KT 05/M10 A305 RMK A01 T00541102  RH  032%=      5-min Rain = 0
KPG1 131628Z 04017KT 06/M10 A305 RMK A01 T00551100  RH  032%=      5-min Rain = 0
KPG1 131629Z 04017KT 06/M10 A305 RMK A01 T00561102  RH  031%=      5-min Rain = 0
KPG1 131630Z 03015KT 05/M10 A305 RMK A01 T00541103  RH  031%=      5-min Rain = 0
KPG1 131631Z 03015KT 05/M10 A305 RMK A01 T00541102  RH  032%=      5-min Rain = 0
KPG1 131632Z 03017KT 06/M10 A305 RMK A01 T00561100  RH  031%=      5-min Rain = 0
KPG1 131633Z 04017KT 06/M10 A305 RMK A01 T00571101  RH  031%=      5-min Rain = 0
KPG1 131634Z 04015KT 06/M10 A305 RMK A01 T00561102  RH  031%=      5-min Rain = 0
KPG1 131635Z 04016KT 06/M10 A305 RMK A01 T00571102  RH  031%=      5-min Rain = 0
KPG1 131636Z 03015KT 06/M10 A305 RMK A01 T00551103  RH  031%=      5-min Rain = 0
KPG1 131637Z 04016KT 06/M10 A305 RMK A01 T00551102  RH  031%=      5-min Rain = 0
KPG1 131638Z 04017KT 06/M10 A305 RMK A01 T00561101  RH  031%=      5-min Rain = 0
KPG1 131639Z 04017KT 06/M10 A305 RMK A01 T00571101  RH  031%=      5-min Rain = 0
KPG1 131640Z 04016KT 06/M10 A3051 RMK A01 T00571102  RH  031%=      5-min Rain = 0
KPG1 131641Z 04017KT 06/M10 A3051 RMK A01 T00571102  RH  031%=      5-min Rain = 0
KPG1 131642Z 04015KT 06/M10 A3051 RMK A01 T00561102  RH  031%=      5-min Rain = 0
KPG1 131643Z 04014KT 06/M10 A3051 RMK A01 T00571101  RH  031%=      5-min Rain = 0
KPG1 131644Z 04017KT 06/M10 A3051 RMK A01 T00581100  RH  031%=      5-min Rain = 0
KPG1 131645Z 05014KT 06/M10 A3051 RMK A01 T00601100  RH  031%=      5-min Rain = 0
KPG1 131646Z 04016G24KT 06/M10 A3051 RMK A01 T00591101  RH  031%=      5-min Rain = 0
KPG1 131647Z 04018KT 06/M10 A3051 RMK A01 T00581102  RH  031%=      5-min Rain = 0
KPG1 131648Z 04015G20KT 06/M10 A3051 RMK A01 T00571102  RH  031%=      5-min Rain = 0
KPG1 131649Z 05017KT 06/M10 A3051 RMK A01 T00571101  RH  031%=      5-min Rain = 0
KPG1 131650Z 03019KT 06/M10 A3051 RMK A01 T00571101  RH  031%=      5-min Rain = 0
KPG1 131651Z 03018G24KT 06/M10 A3051 RMK A01 T00561101  RH  031%=      5-min Rain = 0
KPG1 131652Z 04017KT 06/M10 A3051 RMK A01 T00561102  RH  031%=      5-min Rain = 0
KPG1 131653Z 03019G24KT 06/M10 A3051 RMK A01 T00561101  RH  031%=      5-min Rain = 0
KPG1 131654Z 04016KT 06/M10 A305 RMK A01 T00561101  RH  031%=      5-min Rain = 0
KPG1 131655Z 03014KT 06/M10 A305 RMK A01 T00571100  RH  031%=      5-min Rain = 0
KPG1 131656Z 04019KT 06/M10 A305 RMK A01 T00591099  RH  031%=      5-min Rain = 0
KPG1 131657Z 04017G22KT 06/M10 A3051 RMK A01 T00601100  RH  031%=      5-min Rain = 0
KPG1 131658Z 03019KT 06/M10 A305 RMK A01 T00601100  RH  031%=      5-min Rain = 0
KPG1 131659Z 03020KT 06/M10 A3051 RMK A01 T00601101  RH  031%=      5-min Rain = 0
KPG1 131700Z 03018KT 06/M10 A305 RMK A01 T00591101  RH  031%=      5-min Rain = 0
KPG1 131701Z 04017KT 06/M10 A305 RMK A01 T00601099  RH  031%=      5-min Rain = 0
KPG1 131702Z 03018KT 06/M10 A305 RMK A01 T00611099  RH  031%=      5-min Rain = 0
KPG1 131703Z 03019KT 06/M10 A305 RMK A01 T00611100  RH  031%=      5-min Rain = 0
KPG1 131704Z 04019G24KT 06/M10 A305 RMK A01 T00621099  RH  031%=      5-min Rain = 0
KPG1 131705Z 03019KT 06/M10 A305 RMK A01 T00621100  RH  030%=      5-min Rain = 0
KPG1 131706Z 04020KT 06/M10 A305 RMK A01 T00611100  RH  030%=      5-min Rain = 0
KPG1 131707Z 04017KT 06/M10 A305 RMK A01 T00601100  RH  030%=      5-min Rain = 0
KPG1 131708Z 04017G23KT 06/M10 A305 RMK A01 T00621098  RH  031%=      5-min Rain = 0
KPG1 131709Z 04020KT 06/M10 A305 RMK A01 T00641099  RH  030%=      5-min Rain = 0
KPG1 131710Z 04019KT 06/M10 A305 RMK A01 T00631100  RH  030%=      5-min Rain = 0
KPG1 131711Z 04016KT 06/M10 A305 RMK A01 T00631099  RH  030%=      5-min Rain = 0
KPG1 131712Z 04019KT 07/M10 A305 RMK A01 T00661098  RH  030%=      5-min Rain = 0
KPG1 131713Z 04018KT 07/M10 A305 RMK A01 T00661099  RH  030%=      5-min Rain = 0
KPG1 131714Z 04019KT 07/M10 A3051 RMK A01 T00661099  RH  030%=      5-min Rain = 0
KPG1 131715Z 04018KT 07/M10 A3051 RMK A01 T00651100  RH  030%=      5-min Rain = 0
KPG1 131716Z 04019KT 07/M10 A3051 RMK A01 T00651100  RH  030%=      5-min Rain = 0
KPG1 131717Z 04019KT 06/M10 A3051 RMK A01 T00641100  RH  030%=      5-min Rain = 0
KPG1 131718Z 04017G22KT 06/M10 A3051 RMK A01 T00641100  RH  030%=      5-min Rain = 0
KPG1 131719Z 05017KT 07/M10 A3051 RMK A01 T00651098  RH  030%=      5-min Rain = 0
KPG1 131720Z 04016KT 07/M10 A3051 RMK A01 T00671097  RH  030%=      5-min Rain = 0
KPG1 131721Z 04019KT 07/M10 A3051 RMK A01 T00671099  RH  029%=      5-min Rain = 0
KPG1 131722Z 03017KT 07/M10 A3051 RMK A01 T00671099  RH  029%=      5-min Rain = 0
KPG1 131723Z 04017KT 07/M10 A3051 RMK A01 T00681099  RH  029%=      5-min Rain = 0
KPG1 131724Z 03017KT 07/M10 A3051 RMK A01 T00681100  RH  029%=      5-min Rain = 0
KPG1 131725Z 03017KT 07/M10 A3051 RMK A01 T00681099  RH  029%=      5-min Rain = 0
KPG1 131726Z 03016KT 07/M10 A3051 RMK A01 T00681099  RH  029%=      5-min Rain = 0
KPG1 131727Z 04015KT 07/M10 A3051 RMK A01 T00681099  RH  029%=      5-min Rain = 0
KPG1 131728Z 04012G17KT 07/M10 A3051 RMK A01 T00681099  RH  029%=      5-min Rain = 0
KPG1 131729Z 03016KT 07/M10 A3051 RMK A01 T00711097  RH  029%=      5-min Rain = 0
KPG1 131730Z 03017KT 07/M10 A3051 RMK A01 T00711098  RH  029%=      5-min Rain = 0
KPG1 131731Z 03017KT 07/M10 A3051 RMK A01 T00701098  RH  029%=      5-min Rain = 0
KPG1 131732Z 03015KT 07/M10 A3051 RMK A01 T00691099  RH  029%=      5-min Rain = 0
KPG1 131733Z 03015KT 07/M10 A3051 RMK A01 T00701099  RH  029%=      5-min Rain = 0
KPG1 131734Z 03014KT 07/M10 A3051 RMK A01 T00691100  RH  029%=      5-min Rain = 0
KPG1 131735Z 03012KT 07/M10 A3051 RMK A01 T00691098  RH  029%=      5-min Rain = 0
KPG1 131736Z 05011G18KT 07/M10 A3051 RMK A01 T00721096  RH  029%=      5-min Rain = 0
KPG1 131737Z 06014KT 08/M10 A3051 RMK A01 T00751096  RH  029%=      5-min Rain = 0
KPG1 131738Z 04016KT 07/M10 A3051 RMK A01 T00731099  RH  028%=      5-min Rain = 0
KPG1 131739Z 05014G19KT 07/M10 A3051 RMK A01 T00721099  RH  029%=      5-min Rain = 0
KPG1 131740Z 04011KT 07/M10 A3051 RMK A01 T00711099  RH  029%=      5-min Rain = 0
KPG1 131741Z 03012G18KT 07/M10 A3051 RMK A01 T00721098  RH  029%=      5-min Rain = 0
KPG1 131742Z 04008KT 07/M10 A3051 RMK A01 T00721098  RH  029%=      5-min Rain = 0
KPG1 131743Z 04016KT 08/M10 A3051 RMK A01 T00761095  RH  029%=      5-min Rain = 0
KPG1 131744Z 04016KT 08/M10 A3051 RMK A01 T00751098  RH  028%=      5-min Rain = 0
KPG1 131745Z 05010KT 07/M10 A3051 RMK A01 T00731099  RH  028%=      5-min Rain = 0
KPG1 131746Z 04011KT 08/M10 A3051 RMK A01 T00751097  RH  028%=      5-min Rain = 0
KPG1 131747Z 04014KT 08/M10 A3051 RMK A01 T00761097  RH  028%=      5-min Rain = 0
KPG1 131748Z 04013KT 07/M10 A3051 RMK A01 T00741100  RH  028%=      5-min Rain = 0
KPG1 131749Z 03009G14KT 07/M10 A3051 RMK A01 T00731099  RH  028%=      5-min Rain = 0
KPG1 131750Z 03012G18KT 08/M09 A3051 RMK A01 T00781094  RH  028%=      5-min Rain = 0
KPG1 131751Z 04015KT 08/M10 A3051 RMK A01 T00801096  RH  028%=      5-min Rain = 0
KPG1 131752Z 05015KT 08/M10 A3051 RMK A01 T00771100  RH  027%=      5-min Rain = 0
KPG1 131753Z 04013KT 08/M10 A3051 RMK A01 T00751099  RH  028%=      5-min Rain = 0
KPG1 131754Z 04010KT 07/M10 A3051 RMK A01 T00741098  RH  028%=      5-min Rain = 0
KPG1 131755Z 04013G19KT 08/M09 A3051 RMK A01 T00791094  RH  028%=      5-min Rain = 0
KPG1 131756Z 05010KT 08/M10 A3051 RMK A01 T00781097  RH  028%=      5-min Rain = 0
KPG1 131757Z 07013KT 08/M10 A3051 RMK A01 T00781097  RH  028%=      5-min Rain = 0
KPG1 131758Z 05012KT 08/M10 A3051 RMK A01 T00781097  RH  028%=      5-min Rain = 0
KPG1 131759Z 06012KT 08/M10 A3051 RMK A01 T00781097  RH  028%=      5-min Rain = 0
KPG1 131800Z 05011KT 08/M10 A3051 RMK A01 T00791097  RH  028%=      5-min Rain = 0
KPG1 131801Z 03014KT 08/M10 A3051 RMK A01 T00801096  RH  028%=      5-min Rain = 0
KPG1 131802Z 04013KT 08/M10 A3051 RMK A01 T00791097  RH  028%=      5-min Rain = 0
KPG1 131803Z 05010KT 08/M10 A3051 RMK A01 T00771098  RH  028%=      5-min Rain = 0
KPG1 131804Z 04011G17KT 08/M10 A3051 RMK A01 T00781096  RH  028%=      5-min Rain = 0
KPG1 131805Z 04015KT 08/M10 A3051 RMK A01 T00791097  RH  028%=      5-min Rain = 0
KPG1 131806Z 05012KT 08/M10 A3051 RMK A01 T00781097  RH  028%=      5-min Rain = 0
KPG1 131807Z 03012KT 08/M10 A3051 RMK A01 T00781097  RH  028%=      5-min Rain = 0
KPG1 131808Z 04014KT 08/M10 A3051 RMK A01 T00801097  RH  027%=      5-min Rain = 0
KPG1 131809Z 03013KT 08/M10 A3051 RMK A01 T00801097  RH  027%=      5-min Rain = 0
KPG1 131810Z 03015KT 08/M10 A3051 RMK A01 T00781098  RH  027%=      5-min Rain = 0
KPG1 131811Z 05011G16KT 08/M10 A3051 RMK A01 T00781098  RH  027%=      5-min Rain = 0
KPG1 131812Z 05009KT 08/M10 A3051 RMK A01 T00791098  RH  027%=      5-min Rain = 0
KPG1 131813Z 07011KT 08/M10 A305 RMK A01 T00801098  RH  027%=      5-min Rain = 0
KPG1 131814Z 07014KT 08/M10 A305 RMK A01 T00811098  RH  027%=      5-min Rain = 0
KPG1 131815Z 07013KT 08/M10 A305 RMK A01 T00801099  RH  027%=      5-min Rain = 0
KPG1 131816Z 06013KT 08/M10 A305 RMK A01 T00821097  RH  027%=      5-min Rain = 0
KPG1 131817Z 06012KT 08/M10 A305 RMK A01 T00831098  RH  027%=      5-min Rain = 0
KPG1 131818Z 03011G17KT 08/M10 A305 RMK A01 T00831098  RH  027%=      5-min Rain = 0
KPG1 131819Z 04015KT 08/M10 A305 RMK A01 T00831098  RH  027%=      5-min Rain = 0
KPG1 131820Z 04011KT 08/M10 A305 RMK A01 T00811100  RH  027%=      5-min Rain = 0
KPG1 131821Z 03012G17KT 08/M10 A305 RMK A01 T00801099  RH  027%=      5-min Rain = 0
KPG1 131822Z 04009G14KT 08/M10 A305 RMK A01 T00801098  RH  027%=      5-min Rain = 0
KPG1 131823Z 05009KT 08/M10 A305 RMK A01 T00841096  RH  027%=      5-min Rain = 0
KPG1 131824Z 04011KT 09/M10 A305 RMK A01 T00861096  RH  026%=      5-min Rain = 0
KPG1 131825Z 06011KT 09/M10 A305 RMK A01 T00861098  RH  026%=      5-min Rain = 0
KPG1 131826Z 08011KT 09/M10 A305 RMK A01 T00861098  RH  026%=      5-min Rain = 0
KPG1 131827Z 06013KT 09/M10 A3049 RMK A01 T00861098  RH  026%=      5-min Rain = 0
KPG1 131828Z 06011G16KT 09/M10 A3049 RMK A01 T00861099  RH  026%=      5-min Rain = 0
KPG1 131829Z 04009KT 09/M10 A3049 RMK A01 T00871098  RH  026%=      5-min Rain = 0
KPG1 131830Z 03009KT 09/M10 A3049 RMK A01 T00891098  RH  026%=      5-min Rain = 0
KPG1 131831Z 02012KT 09/M10 A3049 RMK A01 T00901097  RH  026%=      5-min Rain = 0
KPG1 131832Z 03015KT 09/M10 A3049 RMK A01 T00881099  RH  026%=      5-min Rain = 0
KPG1 131833Z 04013KT 09/M10 A3049 RMK A01 T00871099  RH  026%=      5-min Rain = 0
KPG1 131834Z 03011KT 09/M10 A3049 RMK A01 T00871099  RH  026%=      5-min Rain = 0
KPG1 131835Z 03014KT 09/M10 A3049 RMK A01 T00871100  RH  026%=      5-min Rain = 0
KPG1 131836Z 04012KT 08/M10 A3049 RMK A01 T00841102  RH  026%=      5-min Rain = 0
KPG1 131837Z 03008KT 08/M10 A3049 RMK A01 T00841101  RH  026%=      5-min Rain = 0
KPG1 131838Z 05009KT 08/M10 A3048 RMK A01 T00841100  RH  026%=      5-min Rain = 0
KPG1 131839Z 06011KT 09/M10 A3048 RMK A01 T00871098  RH  026%=      5-min Rain = 0
KPG1 131840Z 04010KT 09/M10 A3048 RMK A01 T00861100  RH  026%=      5-min Rain = 0
KPG1 131841Z 05009KT 09/M10 A3048 RMK A01 T00851100  RH  026%=      5-min Rain = 0
KPG1 131842Z 04009KT 09/M10 A3048 RMK A01 T00861099  RH  026%=      5-min Rain = 0
KPG1 131843Z 04012G19KT 09/M10 A3048 RMK A01 T00911096  RH  026%=      5-min Rain = 0
KPG1 131844Z 04014G19KT 09/M10 A3048 RMK A01 T00891102  RH  025%=      5-min Rain = 0
KPG1 131845Z 03014KT 09/M10 A3048 RMK A01 T00861103  RH  025%=      5-min Rain = 0
KPG1 131846Z 04013G18KT 09/M10 A3048 RMK A01 T00861101  RH  025%=      5-min Rain = 0
KPG1 131847Z 04014KT 09/M10 A3047 RMK A01 T00861101  RH  025%=      5-min Rain = 0
KPG1 131848Z 05012KT 09/M10 A3047 RMK A01 T00881099  RH  025%=      5-min Rain = 0
KPG1 131849Z 05010G16KT 09/M10 A3047 RMK A01 T00901099  RH  025%=      5-min Rain = 0
KPG1 131850Z 05008KT 10/M10 A3047 RMK A01 T00951096  RH  025%=      5-min Rain = 0
KPG1 131851Z 05010KT 10/M10 A3047 RMK A01 T00981096  RH  024%=      5-min Rain = 0
KPG1 131852Z 06014KT 10/M10 A3047 RMK A01 T00951101  RH  024%=      5-min Rain = 0
KPG1 131853Z 07012KT 09/M10 A3047 RMK A01 T00901104  RH  024%=      5-min Rain = 0
KPG1 131854Z 05010KT 09/M10 A3047 RMK A01 T00901100  RH  025%=      5-min Rain = 0
KPG1 131855Z 05009KT 09/M10 A3047 RMK A01 T00941098  RH  025%=      5-min Rain = 0
KPG1 131856Z 05011KT 09/M10 A3047 RMK A01 T00941099  RH  025%=      5-min Rain = 0
KPG1 131857Z 07014KT 09/M10 A3047 RMK A01 T00921102  RH  024%=      5-min Rain = 0
KPG1 131858Z 06013KT 09/M10 A3047 RMK A01 T00891103  RH  025%=      5-min Rain = 0
KPG1 131859Z 03013KT 09/M10 A3047 RMK A01 T00891101  RH  025%=      5-min Rain = 0
KPG1 131900Z 02012KT 09/M10 A3046 RMK A01 T00901100  RH  025%=      5-min Rain = 0
KPG1 131901Z 03013KT 09/M10 A3046 RMK A01 T00911099  RH  025%=      5-min Rain = 0
KPG1 131902Z 03013KT 09/M10 A3046 RMK A01 T00931099  RH  025%=      5-min Rain = 0
KPG1 131903Z 03012KT 10/M10 A3046 RMK A01 T00951099  RH  024%=      5-min Rain = 0
KPG1 131904Z 06011KT 09/M10 A3046 RMK A01 T00941102  RH  024%=      5-min Rain = 0
KPG1 131905Z 07012KT 09/M10 A3046 RMK A01 T00921103  RH  024%=      5-min Rain = 0
KPG1 131906Z 05014KT 09/M10 A3046 RMK A01 T00921102  RH  024%=      5-min Rain = 0
KPG1 131907Z 03014KT 09/M10 A3046 RMK A01 T00941101  RH  024%=      5-min Rain = 0
KPG1 131908Z 03014KT 09/M10 A3046 RMK A01 T00921103  RH  024%=      5-min Rain = 0
KPG1 131909Z 04012G17KT 09/M10 A3046 RMK A01 T00911102  RH  024%=      5-min Rain = 0
KPG1 131910Z 04011KT 09/M10 A3045 RMK A01 T00901101  RH  025%=      5-min Rain = 0
KPG1 131911Z 04009G14KT 09/M10 A3045 RMK A01 T00911099  RH  025%=      5-min Rain = 0
KPG1 131912Z 04013KT 10/M10 A3045 RMK A01 T00951098  RH  025%=      5-min Rain = 0
KPG1 131913Z 04012KT 09/M10 A3045 RMK A01 T00941103  RH  024%=      5-min Rain = 0
KPG1 131914Z 05011KT 09/M10 A3045 RMK A01 T00921104  RH  024%=      5-min Rain = 0
KPG1 131915Z 05010KT 09/M10 A3045 RMK A01 T00901104  RH  024%=      5-min Rain = 0
KPG1 131916Z 05010KT 09/M10 A3045 RMK A01 T00931102  RH  024%=      5-min Rain = 0
KPG1 131917Z 04013KT 10/M10 A3045 RMK A01 T00951101  RH  024%=      5-min Rain = 0
KPG1 131918Z 03012KT 10/M10 A3045 RMK A01 T00961101  RH  024%=      5-min Rain = 0
KPG1 131919Z 03014KT 10/M10 A3045 RMK A01 T00961101  RH  024%=      5-min Rain = 0
KPG1 131920Z 05010G15KT 10/M10 A3045 RMK A01 T00951101  RH  024%=      5-min Rain = 0
KPG1 131921Z 03011KT 10/M10 A3045 RMK A01 T00991099  RH  024%=      5-min Rain = 0
KPG1 131922Z 04010KT 10/M10 A3045 RMK A01 T00971103  RH  023%=      5-min Rain = 0
KPG1 131923Z 04012KT 10/M10 A3045 RMK A01 T00951102  RH  024%=      5-min Rain = 0
KPG1 131924Z 04015KT 10/M10 A3044 RMK A01 T00951103  RH  024%=      5-min Rain = 0
KPG1 131925Z 05009KT 09/M11 A3044 RMK A01 T00921105  RH  024%=      5-min Rain = 0
KPG1 131926Z 05010KT 09/M10 A3044 RMK A01 T00941101  RH  024%=      5-min Rain = 0
KPG1 131927Z 06012KT 10/M10 A3044 RMK A01 T00981099  RH  024%=      5-min Rain = 0
KPG1 131928Z 04012KT 10/M10 A3044 RMK A01 T01011099  RH  023%=      5-min Rain = 0
KPG1 131929Z 04012KT 10/M10 A3044 RMK A01 T01001102  RH  023%=      5-min Rain = 0
KPG1 131930Z 05011KT 10/M10 A3044 RMK A01 T00981103  RH  023%=      5-min Rain = 0
KPG1 131931Z 03011KT 10/M10 A3044 RMK A01 T00991101  RH  023%=      5-min Rain = 0
KPG1 131932Z 04010KT 10/M10 A3044 RMK A01 T00991103  RH  023%=      5-min Rain = 0
KPG1 131933Z 05010KT 10/M10 A3044 RMK A01 T00981103  RH  023%=      5-min Rain = 0
KPG1 131934Z 03014KT 10/M10 A3043 RMK A01 T00971103  RH  023%=      5-min Rain = 0
KPG1 131935Z 03016KT 10/M10 A3043 RMK A01 T00971102  RH  023%=      5-min Rain = 0
KPG1 131936Z 04014KT 10/M10 A3043 RMK A01 T00971102  RH  023%=      5-min Rain = 0
KPG1 131937Z 04015KT 10/M10 A3043 RMK A01 T00961102  RH  024%=      5-min Rain = 0
KPG1 131938Z 05013KT 10/M10 A3043 RMK A01 T00951103  RH  024%=      5-min Rain = 0
KPG1 131939Z 04011KT 10/M10 A3043 RMK A01 T00951100  RH  024%=      5-min Rain = 0
KPG1 131940Z 02012KT 10/M10 A3043 RMK A01 T00981098  RH  024%=      5-min Rain = 0
KPG1 131941Z 03013KT 10/M10 A3043 RMK A01 T00981100  RH  024%=      5-min Rain = 0
KPG1 131942Z 03013KT 10/M10 A3043 RMK A01 T00971102  RH  023%=      5-min Rain = 0
KPG1 131943Z 04009KT 10/M10 A3043 RMK A01 T00951103  RH  024%=      5-min Rain = 0
KPG1 131944Z 05009KT 10/M10 A3043 RMK A01 T00971101  RH  024%=      5-min Rain = 0
KPG1 131945Z 06008KT 10/M10 A3043 RMK A01 T01001099  RH  024%=      5-min Rain = 0
KPG1 131946Z 04013KT 10/M10 A3043 RMK A01 T01041097  RH  023%=      5-min Rain = 0
KPG1 131947Z 04011KT 10/M10 A3043 RMK A01 T01041101  RH  023%=      5-min Rain = 0
KPG1 131948Z 06010KT 10/M10 A3042 RMK A01 T00991104  RH  023%=      5-min Rain = 0
KPG1 131949Z 04010KT 10/M10 A3042 RMK A01 T01011099  RH  023%=      5-min Rain = 0
KPG1 131950Z 06014KT 11/M10 A3042 RMK A01 T01061098  RH  023%=      5-min Rain = 0
KPG1 131951Z 05015KT 10/M10 A3042 RMK A01 T01021102  RH  023%=      5-min Rain = 0
KPG1 131952Z 04014KT 10/M11 A3042 RMK A01 T00971105  RH  023%=      5-min Rain = 0
KPG1 131953Z 06011KT 10/M10 A3042 RMK A01 T00961104  RH  023%=      5-min Rain = 0
KPG1 131954Z 05011KT 10/M10 A3042 RMK A01 T00971102  RH  024%=      5-min Rain = 0
KPG1 131955Z 07011KT 10/M10 A3042 RMK A01 T00991100  RH  023%=      5-min Rain = 0
KPG1 131956Z 06014KT 10/M10 A3042 RMK A01 T00991101  RH  023%=      5-min Rain = 0
KPG1 131957Z 05014KT 10/M10 A3042 RMK A01 T00981101  RH  023%=      5-min Rain = 0
KPG1 131958Z 04013KT 10/M10 A3042 RMK A01 T01011099  RH  023%=      5-min Rain = 0
KPG1 131959Z 03011KT 10/M10 A3042 RMK A01 T00991102  RH  023%=      5-min Rain = 0
KPG1 132000Z 04010KT 10/M10 A3042 RMK A01 T01001099  RH  023%=      5-min Rain = 0
KPG1 132001Z 04013KT 10/M10 A3042 RMK A01 T01041098  RH  023%=      5-min Rain = 0
KPG1 132002Z 04012KT 10/M10 A3042 RMK A01 T01021101  RH  023%=      5-min Rain = 0
KPG1 132003Z 03012KT 10/M10 A3042 RMK A01 T01001100  RH  023%=      5-min Rain = 0
KPG1 132004Z 04013KT 10/M10 A3041 RMK A01 T01011100  RH  023%=      5-min Rain = 0
KPG1 132005Z 04013KT 10/M10 A3041 RMK A01 T01001101  RH  023%=      5-min Rain = 0
KPG1 132006Z 06012KT 10/M10 A3041 RMK A01 T01011100  RH  023%=      5-min Rain = 0
KPG1 132007Z 05013KT 10/M10 A3042 RMK A01 T01031098  RH  023%=      5-min Rain = 0
KPG1 132008Z 05012KT 10/M10 A3041 RMK A01 T01031099  RH  023%=      5-min Rain = 0
KPG1 132009Z 05010KT 10/M10 A3041 RMK A01 T01021099  RH  023%=      5-min Rain = 0
KPG1 132010Z 04009KT 10/M10 A3041 RMK A01 T01041099  RH  023%=      5-min Rain = 0
KPG1 132011Z 04009KT 10/M10 A3041 RMK A01 T01031099  RH  023%=      5-min Rain = 0
KPG1 132012Z 04012G17KT 10/M10 A3041 RMK A01 T01041099  RH  023%=      5-min Rain = 0
KPG1 132013Z 03013KT 10/M10 A3041 RMK A01 T01011101  RH  023%=      5-min Rain = 0
KPG1 132014Z 04016KT 10/M10 A3041 RMK A01 T01011100  RH  023%=      5-min Rain = 0
KPG1 132015Z 03013KT 10/M10 A3041 RMK A01 T01011100  RH  023%=      5-min Rain = 0
KPG1 132016Z 03010KT 10/M10 A3041 RMK A01 T01001100  RH  023%=      5-min Rain = 0
KPG1 132017Z 03016G21KT 10/M10 A3041 RMK A01 T01021098  RH  023%=      5-min Rain = 0
KPG1 132018Z 04016KT 10/M10 A3041 RMK A01 T01031099  RH  023%=      5-min Rain = 0
KPG1 132019Z 04017KT 10/M10 A3041 RMK A01 T01011100  RH  023%=      5-min Rain = 0
KPG1 132020Z 05012KT 10/M10 A3041 RMK A01 T01001100  RH  023%=      5-min Rain = 0
KPG1 132021Z 03011KT 10/M10 A3041 RMK A01 T00991100  RH  024%=      5-min Rain = 0
KPG1 132022Z 03013G18KT 10/M10 A3041 RMK A01 T01021098  RH  024%=      5-min Rain = 0
KPG1 132023Z 04012KT 10/M10 A3041 RMK A01 T01031098  RH  023%=      5-min Rain = 0
KPG1 132024Z 04011KT 10/M10 A3041 RMK A01 T01041097  RH  023%=      5-min Rain = 0
KPG1 132025Z 04011G19KT 10/M10 A3041 RMK A01 T01031098  RH  023%=      5-min Rain = 0
KPG1 132026Z 03015KT 10/M10 A3041 RMK A01 T01021098  RH  023%=      5-min Rain = 0
KPG1 132027Z 03013KT 10/M10 A3041 RMK A01 T01021098  RH  023%=      5-min Rain = 0
KPG1 132028Z 02014KT 10/M10 A3041 RMK A01 T01031097  RH  023%=      5-min Rain = 0
KPG1 132029Z 03014KT 11/M10 A3041 RMK A01 T01051097  RH  023%=      5-min Rain = 0
KPG1 132030Z 04014KT 11/M10 A3041 RMK A01 T01051097  RH  023%=      5-min Rain = 0
KPG1 132031Z 03012KT 11/M10 A3041 RMK A01 T01051097  RH  023%=      5-min Rain = 0
KPG1 132032Z 03014KT 11/M10 A3041 RMK A01 T01051097  RH  023%=      5-min Rain = 0
KPG1 132033Z 04013KT 10/M10 A3041 RMK A01 T01041098  RH  023%=      5-min Rain = 0
KPG1 132034Z 02013KT 10/M10 A3041 RMK A01 T01031098  RH  023%=      5-min Rain = 0
KPG1 132035Z 03013KT 10/M10 A3041 RMK A01 T01031098  RH  023%=      5-min Rain = 0
KPG1 132036Z 04013KT 10/M10 A3041 RMK A01 T01041096  RH  023%=      5-min Rain = 0
KPG1 132037Z 05014KT 11/M10 A3041 RMK A01 T01081095  RH  023%=      5-min Rain = 0
KPG1 132038Z 03013KT 11/M10 A3041 RMK A01 T01071096  RH  023%=      5-min Rain = 0
KPG1 132039Z 03016KT 11/M10 A3041 RMK A01 T01071096  RH  023%=      5-min Rain = 0
KPG1 132040Z 03014KT 11/M10 A3041 RMK A01 T01061097  RH  023%=      5-min Rain = 0
KPG1 132041Z 03013KT 11/M10 A3041 RMK A01 T01051097  RH  023%=      5-min Rain = 0
KPG1 132042Z 04012KT 11/M10 A3041 RMK A01 T01051098  RH  023%=      5-min Rain = 0
KPG1 132043Z 03015KT 11/M10 A3041 RMK A01 T01051097  RH  023%=      5-min Rain = 0
KPG1 132044Z 04016KT 11/M10 A304 RMK A01 T01061097  RH  023%=      5-min Rain = 0
KPG1 132045Z 04015KT 11/M10 A304 RMK A01 T01051098  RH  023%=      5-min Rain = 0
KPG1 132046Z 04014KT 11/M10 A304 RMK A01 T01051097  RH  023%=      5-min Rain = 0
KPG1 132047Z 04011KT 10/M10 A304 RMK A01 T01041097  RH  023%=      5-min Rain = 0
KPG1 132048Z 04012KT 10/M10 A304 RMK A01 T01041097  RH  023%=      5-min Rain = 0
KPG1 132049Z 05014KT 11/M10 A304 RMK A01 T01061096  RH  023%=      5-min Rain = 0
KPG1 132050Z 04014KT 11/M10 A304 RMK A01 T01061097  RH  023%=      5-min Rain = 0
KPG1 132051Z 03014KT 11/M10 A304 RMK A01 T01061096  RH  023%=      5-min Rain = 0
KPG1 132052Z 04012KT 11/M10 A304 RMK A01 T01061097  RH  023%=      5-min Rain = 0
KPG1 132053Z 04014KT 11/M10 A304 RMK A01 T01071096  RH  023%=      5-min Rain = 0
KPG1 132054Z 05012KT 11/M10 A304 RMK A01 T01091096  RH  023%=      5-min Rain = 0
KPG1 132055Z 05012KT 11/M10 A304 RMK A01 T01091096  RH  023%=      5-min Rain = 0
KPG1 132056Z 04015KT 11/M10 A304 RMK A01 T01091096  RH  023%=      5-min Rain = 0
KPG1 132057Z 03016KT 11/M10 A304 RMK A01 T01091096  RH  023%=      5-min Rain = 0
KPG1 132058Z 04014KT 11/M10 A304 RMK A01 T01091096  RH  023%=      5-min Rain = 0
KPG1 132059Z 05010G17KT 11/M10 A304 RMK A01 T01091097  RH  023%=      5-min Rain = 0
KPG1 132100Z 04011G16KT 11/M10 A304 RMK A01 T01071098  RH  023%=      5-min Rain = 0
KPG1 132101Z 04016KT 11/M10 A304 RMK A01 T01081096  RH  023%=      5-min Rain = 0
KPG1 132102Z 03014KT 11/M10 A304 RMK A01 T01081097  RH  023%=      5-min Rain = 0
KPG1 132103Z 03014KT 11/M10 A304 RMK A01 T01071097  RH  023%=      5-min Rain = 0
KPG1 132104Z 05014KT 11/M10 A304 RMK A01 T01071097  RH  023%=      5-min Rain = 0
KPG1 132105Z 04013G19KT 11/M10 A304 RMK A01 T01051098  RH  023%=      5-min Rain = 0
KPG1 132106Z 04014KT 11/M10 A304 RMK A01 T01061097  RH  023%=      5-min Rain = 0
KPG1 132107Z 04012KT 11/M10 A304 RMK A01 T01061098  RH  023%=      5-min Rain = 0
KPG1 132108Z 04014KT 11/M10 A304 RMK A01 T01061097  RH  023%=      5-min Rain = 0
KPG1 132109Z 04012KT 11/M10 A304 RMK A01 T01081096  RH  023%=      5-min Rain = 0
KPG1 132110Z 04013KT 11/M10 A304 RMK A01 T01071096  RH  023%=      5-min Rain = 0
KPG1 132111Z 04012KT 11/M10 A304 RMK A01 T01091095  RH  023%=      5-min Rain = 0
KPG1 132112Z 04012KT 11/M10 A304 RMK A01 T01111095  RH  023%=      5-min Rain = 0
KPG1 132113Z 05010KT 11/M10 A304 RMK A01 T01111095  RH  023%=      5-min Rain = 0
KPG1 132114Z 04008KT 11/M09 A304 RMK A01 T01131093  RH  023%=      5-min Rain = 0
KPG1 132115Z 03011KT 12/M09 A304 RMK A01 T01151094  RH  022%=      5-min Rain = 0
KPG1 132116Z 04010KT 11/M10 A304 RMK A01 T01111098  RH  022%=      5-min Rain = 0
KPG1 132117Z 04011KT 11/M10 A3039 RMK A01 T01101096  RH  023%=      5-min Rain = 0
KPG1 132118Z 03012KT 11/M09 A304 RMK A01 T01131094  RH  022%=      5-min Rain = 0
KPG1 132119Z 04012KT 11/M10 A304 RMK A01 T01131096  RH  022%=      5-min Rain = 0
KPG1 132120Z 04010KT 11/M10 A3039 RMK A01 T01111098  RH  022%=      5-min Rain = 0
KPG1 132121Z 03012KT 11/M10 A304 RMK A01 T01101097  RH  022%=      5-min Rain = 0
KPG1 132122Z 03014KT 11/M10 A3039 RMK A01 T01111097  RH  022%=      5-min Rain = 0
KPG1 132123Z 03012KT 11/M10 A3039 RMK A01 T01111097  RH  022%=      5-min Rain = 0
KPG1 132124Z 03012KT 11/M10 A3039 RMK A01 T01111096  RH  022%=      5-min Rain = 0
KPG1 132125Z 02011KT 11/M10 A3039 RMK A01 T01101097  RH  022%=      5-min Rain = 0
KPG1 132126Z 02012KT 11/M10 A3039 RMK A01 T01101096  RH  023%=      5-min Rain = 0
KPG1 132127Z 04016KT 11/M09 A3039 RMK A01 T01131094  RH  023%=      5-min Rain = 0
KPG1 132128Z 05013KT 11/M10 A3039 RMK A01 T01131095  RH  022%=      5-min Rain = 0
KPG1 132129Z 03013KT 11/M09 A3039 RMK A01 T01141094  RH  022%=      5-min Rain = 0
KPG1 132130Z 03014KT 12/M10 A3039 RMK A01 T01151095  RH  022%=      5-min Rain = 0
KPG1 132131Z 02012KT 11/M10 A3039 RMK A01 T01121097  RH  022%=      5-min Rain = 0
KPG1 132132Z 03014KT 11/M10 A3039 RMK A01 T01121096  RH  022%=      5-min Rain = 0
KPG1 132133Z 03015KT 11/M10 A3039 RMK A01 T01121096  RH  022%=      5-min Rain = 0
KPG1 132134Z 03016KT 11/M10 A3039 RMK A01 T01111096  RH  022%=      5-min Rain = 0
KPG1 132135Z 03014KT 11/M10 A3039 RMK A01 T01111095  RH  023%=      5-min Rain = 0
KPG1 132136Z 04013KT 11/M10 A3039 RMK A01 T01111095  RH  023%=      5-min Rain = 0
KPG1 132137Z 04012KT 11/M10 A3039 RMK A01 T01111095  RH  023%=      5-min Rain = 0
KPG1 132138Z 03012KT 11/M10 A3039 RMK A01 T01121095  RH  022%=      5-min Rain = 0
KPG1 132139Z 03010KT 11/M10 A3039 RMK A01 T01121096  RH  022%=      5-min Rain = 0
KPG1 132140Z 04013KT 11/M10 A3039 RMK A01 T01121095  RH  022%=      5-min Rain = 0
KPG1 132141Z 06010KT 11/M09 A3039 RMK A01 T01121094  RH  022%=      5-min Rain = 0
KPG1 132142Z 07011KT 11/M09 A3039 RMK A01 T01141093  RH  023%=      5-min Rain = 0
KPG1 132143Z 06012KT 11/M09 A3039 RMK A01 T01141094  RH  022%=      5-min Rain = 0
KPG1 132144Z 05011KT 11/M10 A3039 RMK A01 T01131095  RH  022%=      5-min Rain = 0
KPG1 132145Z 06009KT 11/M10 A3039 RMK A01 T01111095  RH  022%=      5-min Rain = 0
KPG1 132146Z 04010KT 11/M10 A3039 RMK A01 T01111095  RH  023%=      5-min Rain = 0
KPG1 132147Z 05009KT 11/M09 A3039 RMK A01 T01111094  RH  023%=      5-min Rain = 0
KPG1 132148Z 04010KT 11/M09 A3039 RMK A01 T01131093  RH  023%=      5-min Rain = 0
KPG1 132149Z 04011KT 11/M09 A3039 RMK A01 T01141093  RH  022%=      5-min Rain = 0
KPG1 132150Z 04010KT 11/M09 A3039 RMK A01 T01141094  RH  022%=      5-min Rain = 0
KPG1 132151Z 03012KT 11/M10 A3039 RMK A01 T01131095  RH  022%=      5-min Rain = 0
KPG1 132152Z 04011KT 11/M10 A3039 RMK A01 T01121095  RH  022%=      5-min Rain = 0
KPG1 132153Z 03010KT 11/M10 A3039 RMK A01 T01111096  RH  022%=      5-min Rain = 0
KPG1 132154Z 05008KT 11/M10 A3039 RMK A01 T01111095  RH  022%=      5-min Rain = 0
KPG1 132155Z 04012KT 11/M09 A3039 RMK A01 T01131093  RH  023%=      5-min Rain = 0
KPG1 132156Z 06010KT 11/M09 A3039 RMK A01 T01131094  RH  022%=      5-min Rain = 0
KPG1 132157Z 05008KT 11/M09 A3039 RMK A01 T01141093  RH  022%=      5-min Rain = 0
KPG1 132158Z 04009KT 12/M09 A3039 RMK A01 T01161092  RH  022%=      5-min Rain = 0
KPG1 132159Z 03011KT 12/M09 A3039 RMK A01 T01171092  RH  022%=      5-min Rain = 0
KPG1 132200Z 03012KT 12/M09 A3039 RMK A01 T01161093  RH  022%=      5-min Rain = 0
KPG1 132201Z 03011KT 11/M09 A3039 RMK A01 T01141093  RH  022%=      5-min Rain = 0
KPG1 132202Z 06010KT 11/M09 A3039 RMK A01 T01121094  RH  023%=      5-min Rain = 0
KPG1 132203Z 06011KT 11/M09 A3039 RMK A01 T01121094  RH  023%=      5-min Rain = 0
KPG1 132204Z 05009KT 11/M09 A3039 RMK A01 T01131093  RH  023%=      5-min Rain = 0
KPG1 132205Z 05008KT 12/M09 A3039 RMK A01 T01161091  RH  023%=      5-min Rain = 0
KPG1 132206Z 05011G16KT 12/M09 A3039 RMK A01 T01201090  RH  022%=      5-min Rain = 0
KPG1 132207Z 05011KT 12/M09 A3039 RMK A01 T01181094  RH  022%=      5-min Rain = 0
KPG1 132208Z 04011KT 11/M10 A3039 RMK A01 T01141095  RH  022%=      5-min Rain = 0
KPG1 132209Z 03012KT 11/M09 A3038 RMK A01 T01121094  RH  023%=      5-min Rain = 0
KPG1 132210Z 05010KT 11/M09 A3038 RMK A01 T01121094  RH  023%=      5-min Rain = 0
KPG1 132211Z 04010KT 11/M09 A3038 RMK A01 T01121093  RH  023%=      5-min Rain = 0
KPG1 132212Z 04010KT 11/M09 A3038 RMK A01 T01141093  RH  023%=      5-min Rain = 0
KPG1 132213Z 04013KT 11/M09 A3038 RMK A01 T01141094  RH  022%=      5-min Rain = 0
KPG1 132214Z 04010KT 11/M09 A3038 RMK A01 T01141094  RH  022%=      5-min Rain = 0
KPG1 132215Z 04010G15KT 12/M09 A3038 RMK A01 T01151092  RH  022%=      5-min Rain = 0
KPG1 132216Z 04011KT 12/M09 A3038 RMK A01 T01161092  RH  022%=      5-min Rain = 0
KPG1 132217Z 03011KT 12/M09 A3038 RMK A01 T01161093  RH  022%=      5-min Rain = 0
KPG1 132218Z 06009KT 12/M09 A3038 RMK A01 T01161093  RH  022%=      5-min Rain = 0
KPG1 132219Z 06010KT 12/M09 A3038 RMK A01 T01161092  RH  022%=      5-min Rain = 0
KPG1 132220Z 05009KT 12/M09 A3038 RMK A01 T01181091  RH  022%=      5-min Rain = 0
KPG1 132221Z 04011KT 12/M09 A3038 RMK A01 T01181092  RH  022%=      5-min Rain = 0
KPG1 132222Z 05011KT 12/M09 A3038 RMK A01 T01181092  RH  022%=      5-min Rain = 0
KPG1 132223Z 05010KT 12/M09 A3038 RMK A01 T01171092  RH  022%=      5-min Rain = 0
KPG1 132224Z 05009KT 12/M09 A3038 RMK A01 T01161093  RH  022%=      5-min Rain = 0
KPG1 132225Z 06009KT 12/M09 A3038 RMK A01 T01171091  RH  022%=      5-min Rain = 0
KPG1 132226Z 07010KT 12/M09 A3038 RMK A01 T01171092  RH  022%=      5-min Rain = 0
KPG1 132227Z 04008KT 12/M09 A3038 RMK A01 T01161093  RH  022%=      5-min Rain = 0
KPG1 132228Z 04009KT 12/M09 A3038 RMK A01 T01171092  RH  022%=      5-min Rain = 0
KPG1 132229Z 04006KT 12/M09 A3038 RMK A01 T01171092  RH  022%=      5-min Rain = 0
KPG1 132230Z 02009KT 12/M09 A3038 RMK A01 T01171092  RH  022%=      5-min Rain = 0
KPG1 132231Z 03009KT 12/M09 A3038 RMK A01 T01171093  RH  022%=      5-min Rain = 0
KPG1 132232Z 03012KT 12/M09 A3038 RMK A01 T01151093  RH  022%=      5-min Rain = 0
KPG1 132233Z 03010KT 11/M09 A3038 RMK A01 T01141094  RH  022%=      5-min Rain = 0
KPG1 132234Z 03011KT 11/M09 A3038 RMK A01 T01141094  RH  022%=      5-min Rain = 0
KPG1 132235Z 04011KT 11/M09 A3038 RMK A01 T01131094  RH  022%=      5-min Rain = 0
KPG1 132236Z 05010KT 11/M09 A3038 RMK A01 T01131093  RH  023%=      5-min Rain = 0
KPG1 132237Z 05008KT 11/M09 A3038 RMK A01 T01131093  RH  023%=      5-min Rain = 0
KPG1 132238Z 04008KT 11/M09 A3038 RMK A01 T01141093  RH  023%=      5-min Rain = 0
KPG1 132239Z 05010KT 12/M09 A3038 RMK A01 T01161092  RH  022%=      5-min Rain = 0
KPG1 132240Z 05008KT 12/M09 A3038 RMK A01 T01151094  RH  022%=      5-min Rain = 0
KPG1 132241Z 05009KT 12/M09 A3038 RMK A01 T01151093  RH  022%=      5-min Rain = 0
KPG1 132242Z 04009KT 12/M09 A3038 RMK A01 T01151093  RH  022%=      5-min Rain = 0
KPG1 132243Z 04010KT 12/M09 A3038 RMK A01 T01151093  RH  022%=      5-min Rain = 0
KPG1 132244Z 04012KT 12/M09 A3038 RMK A01 T01161093  RH  022%=      5-min Rain = 0
KPG1 132245Z 04013KT 12/M09 A3038 RMK A01 T01151093  RH  022%=      5-min Rain = 0
KPG1 132246Z 03013KT 11/M09 A3038 RMK A01 T01141094  RH  022%=      5-min Rain = 0
KPG1 132247Z 04011KT 11/M09 A3038 RMK A01 T01141094  RH  022%=      5-min Rain = 0
KPG1 132248Z 03012KT 11/M09 A3038 RMK A01 T01131093  RH  023%=      5-min Rain = 0
KPG1 132249Z 04011KT 11/M09 A3038 RMK A01 T01131094  RH  023%=      5-min Rain = 0
KPG1 132250Z 03016KT 11/M09 A3038 RMK A01 T01131094  RH  022%=      5-min Rain = 0
KPG1 132251Z 03013KT 11/M10 A3038 RMK A01 T01121095  RH  023%=      5-min Rain = 0
KPG1 132252Z 04014KT 11/M09 A3038 RMK A01 T01111094  RH  023%=      5-min Rain = 0
KPG1 132253Z 03013KT 11/M10 A3038 RMK A01 T01101095  RH  023%=      5-min Rain = 0
KPG1 132254Z 03014KT 11/M09 A3038 RMK A01 T01101094  RH  023%=      5-min Rain = 0
KPG1 132255Z 04013KT 11/M09 A3038 RMK A01 T01101094  RH  023%=      5-min Rain = 0
KPG1 132256Z 03012KT 11/M09 A3038 RMK A01 T01111094  RH  023%=      5-min Rain = 0
KPG1 132257Z 04010KT 11/M09 A3038 RMK A01 T01111093  RH  023%=      5-min Rain = 0
KPG1 132258Z 03012KT 11/M09 A3038 RMK A01 T01111094  RH  023%=      5-min Rain = 0
KPG1 132259Z 03014KT 11/M09 A3038 RMK A01 T01111094  RH  023%=      5-min Rain = 0
KPG1 132300Z 03014KT 11/M09 A3038 RMK A01 T01101094  RH  023%=      5-min Rain = 0
KPG1 132301Z 03012KT 11/M09 A3038 RMK A01 T01101094  RH  023%=      5-min Rain = 0
KPG1 132302Z 03015KT 11/M09 A3038 RMK A01 T01111093  RH  023%=      5-min Rain = 0
KPG1 132303Z 03014KT 11/M09 A3038 RMK A01 T01111094  RH  023%=      5-min Rain = 0
KPG1 132304Z 03014KT 11/M09 A3038 RMK A01 T01111094  RH  023%=      5-min Rain = 0
KPG1 132305Z 04014KT 11/M09 A3038 RMK A01 T01101094  RH  023%=      5-min Rain = 0
KPG1 132306Z 04012KT 11/M09 A3038 RMK A01 T01101094  RH  023%=      5-min Rain = 0
KPG1 132307Z 04012KT 11/M09 A3038 RMK A01 T01111093  RH  023%=      5-min Rain = 0
KPG1 132308Z 03011KT 11/M09 A3038 RMK A01 T01111094  RH  023%=      5-min Rain = 0
KPG1 132309Z 03012G17KT 11/M09 A3038 RMK A01 T01101094  RH  023%=      5-min Rain = 0
KPG1 132310Z 03013KT 11/M09 A3038 RMK A01 T01101094  RH  023%=      5-min Rain = 0
KPG1 132311Z 03013KT 11/M09 A3038 RMK A01 T01101094  RH  023%=      5-min Rain = 0
KPG1 132312Z 04013KT 11/M09 A3038 RMK A01 T01101094  RH  023%=      5-min Rain = 0
KPG1 132313Z 05013KT 11/M09 A3038 RMK A01 T01091094  RH  023%=      5-min Rain = 0
KPG1 132314Z 04014KT 11/M09 A3038 RMK A01 T01091094  RH  023%=      5-min Rain = 0
KPG1 132315Z 05014KT 11/M09 A3038 RMK A01 T01091094  RH  023%=      5-min Rain = 0
KPG1 132316Z 04011KT 11/M09 A3038 RMK A01 T01091094  RH  023%=      5-min Rain = 0
KPG1 132317Z 03015KT 11/M09 A3038 RMK A01 T01101094  RH  023%=      5-min Rain = 0
KPG1 132318Z 03014KT 11/M09 A3038 RMK A01 T01101094  RH  023%=      5-min Rain = 0
KPG1 132319Z 03014KT 11/M10 A3038 RMK A01 T01091095  RH  023%=      5-min Rain = 0
KPG1 132320Z 03014KT 11/M10 A3038 RMK A01 T01091095  RH  023%=      5-min Rain = 0
KPG1 132321Z 03014KT 11/M10 A3038 RMK A01 T01081096  RH  023%=      5-min Rain = 0
KPG1 132322Z 03014KT 11/M10 A3038 RMK A01 T01081095  RH  023%=      5-min Rain = 0
KPG1 132323Z 03014KT 11/M10 A3038 RMK A01 T01081095  RH  023%=      5-min Rain = 0
KPG1 132324Z 04012KT 11/M10 A3038 RMK A01 T01081095  RH  023%=      5-min Rain = 0
KPG1 132325Z 03014KT 11/M10 A3038 RMK A01 T01081095  RH  023%=      5-min Rain = 0
KPG1 132326Z 03013KT 11/M10 A3038 RMK A01 T01081095  RH  023%=      5-min Rain = 0
KPG1 132327Z 03013KT 11/M10 A3038 RMK A01 T01081095  RH  023%=      5-min Rain = 0
KPG1 132328Z 04014KT 11/M10 A3038 RMK A01 T01081095  RH  023%=      5-min Rain = 0
KPG1 132329Z 03013KT 11/M10 A3038 RMK A01 T01081096  RH  023%=      5-min Rain = 0
KPG1 132330Z 03012KT 11/M10 A3038 RMK A01 T01081096  RH  023%=      5-min Rain = 0
KPG1 132331Z 03014KT 11/M10 A3037 RMK A01 T01081096  RH  023%=      5-min Rain = 0
KPG1 132332Z 02015KT 11/M10 A3037 RMK A01 T01081096  RH  023%=      5-min Rain = 0
KPG1 132333Z 03013KT 11/M10 A3037 RMK A01 T01071096  RH  023%=      5-min Rain = 0
KPG1 132334Z 04013KT 11/M10 A3037 RMK A01 T01071096  RH  023%=      5-min Rain = 0
KPG1 132335Z 04013KT 11/M10 A3037 RMK A01 T01071095  RH  023%=      5-min Rain = 0
KPG1 132336Z 04013KT 11/M10 A3037 RMK A01 T01071096  RH  023%=      5-min Rain = 0
KPG1 132337Z 04014KT 11/M10 A3037 RMK A01 T01071096  RH  023%=      5-min Rain = 0
KPG1 132338Z 03012KT 11/M10 A3037 RMK A01 T01071096  RH  023%=      5-min Rain = 0
KPG1 132339Z 04012KT 11/M10 A3037 RMK A01 T01061096  RH  023%=      5-min Rain = 0
KPG1 132340Z 03014KT 11/M10 A3037 RMK A01 T01061096  RH  023%=      5-min Rain = 0
KPG1 132341Z 04014KT 11/M10 A3037 RMK A01 T01061096  RH  023%=      5-min Rain = 0
KPG1 132342Z 03013KT 11/M10 A3037 RMK A01 T01061097  RH  023%=      5-min Rain = 0
KPG1 132343Z 03012KT 11/M10 A3037 RMK A01 T01051097  RH  023%=      5-min Rain = 0
KPG1 132344Z 03011KT 11/M10 A3037 RMK A01 T01051097  RH  023%=      5-min Rain = 0
KPG1 132345Z 04012KT 11/M10 A3037 RMK A01 T01051097  RH  023%=      5-min Rain = 0
KPG1 132346Z 04012KT 10/M10 A3037 RMK A01 T01041098  RH  023%=      5-min Rain = 0
KPG1 132347Z 04011KT 10/M10 A3037 RMK A01 T01041098  RH  023%=      5-min Rain = 0
KPG1 132348Z 03012KT 10/M10 A3037 RMK A01 T01041098  RH  023%=      5-min Rain = 0
KPG1 132349Z 03013KT 10/M10 A3037 RMK A01 T01031098  RH  023%=      5-min Rain = 0
KPG1 132350Z 04011KT 10/M10 A3037 RMK A01 T01021099  RH  023%=      5-min Rain = 0
KPG1 132351Z 04011KT 10/M10 A3037 RMK A01 T01031098  RH  023%=      5-min Rain = 0
KPG1 132352Z 03012KT 10/M10 A3037 RMK A01 T01021098  RH  023%=      5-min Rain = 0
KPG1 132353Z 03013KT 10/M10 A3037 RMK A01 T01021098  RH  023%=      5-min Rain = 0
KPG1 132354Z 03015KT 10/M10 A3037 RMK A01 T01011099  RH  023%=      5-min Rain = 0
KPG1 132355Z 03014KT 10/M10 A3037 RMK A01 T01001099  RH  023%=      5-min Rain = 0
KPG1 132356Z 03014KT 10/M10 A3037 RMK A01 T01001099  RH  024%=      5-min Rain = 0
KPG1 132357Z 03014KT 10/M10 A3037 RMK A01 T01001099  RH  024%=      5-min Rain = 0
KPG1 132358Z 04015KT 10/M10 A3037 RMK A01 T00991099  RH  024%=      5-min Rain = 0
KPG1 132359Z 04014KT 10/M10 A3037 RMK A01 T00991099  RH  024%=      5-min Rain = 0
KPG1 140000Z 03014KT 10/M10 A3037 RMK A01 T00991099  RH  024%=      5-min Rain = 0
KPG1 140001Z 03014KT 10/M10 A3037 RMK A01 T00991099  RH  024%=      5-min Rain = 0
KPG1 140002Z 03014KT 10/M10 A3037 RMK A01 T00981100  RH  024%=      5-min Rain = 0
KPG1 140003Z 03015KT 10/M10 A3037 RMK A01 T00981099  RH  024%=      5-min Rain = 0
KPG1 140004Z 04014KT 10/M10 A3037 RMK A01 T00971100  RH  024%=      5-min Rain = 0
KPG1 140005Z 03015KT 10/M10 A3037 RMK A01 T00971100  RH  024%=      5-min Rain = 0
KPG1 140006Z 04015KT 10/M10 A3037 RMK A01 T00961100  RH  024%=      5-min Rain = 0
KPG1 140007Z 03015KT 10/M10 A3037 RMK A01 T00961100  RH  024%=      5-min Rain = 0
KPG1 140008Z 03015KT 10/M10 A3037 RMK A01 T00961100  RH  024%=      5-min Rain = 0
KPG1 140009Z 04014KT 10/M10 A3037 RMK A01 T00961100  RH  024%=      5-min Rain = 0
KPG1 140010Z 03015KT 10/M10 A3037 RMK A01 T00951101  RH  024%=      5-min Rain = 0
KPG1 140011Z 04015KT 10/M10 A3037 RMK A01 T00951101  RH  024%=      5-min Rain = 0
KPG1 140012Z 03016KT 09/M10 A3037 RMK A01 T00941102  RH  024%=      5-min Rain = 0
KPG1 140013Z 03016KT 09/M10 A3037 RMK A01 T00941101  RH  024%=      5-min Rain = 0
KPG1 140014Z 03016KT 09/M10 A3037 RMK A01 T00941102  RH  024%=      5-min Rain = 0
KPG1 140015Z 04015KT 09/M10 A3037 RMK A01 T00931102  RH  024%=      5-min Rain = 0
KPG1 140016Z 03015KT 09/M10 A3037 RMK A01 T00931102  RH  024%=      5-min Rain = 0
KPG1 140017Z 04014KT 09/M10 A3037 RMK A01 T00921102  RH  024%=      5-min Rain = 0
KPG1 140018Z 04014KT 09/M10 A3037 RMK A01 T00921102  RH  024%=      5-min Rain = 0
KPG1 140019Z 04015KT 09/M10 A3037 RMK A01 T00921102  RH  024%=      5-min Rain = 0
KPG1 140020Z 04015KT 09/M10 A3037 RMK A01 T00921102  RH  024%=      5-min Rain = 0
KPG1 140021Z 04013KT 09/M10 A3037 RMK A01 T00911102  RH  024%=      5-min Rain = 0
KPG1 140022Z 03013KT 09/M10 A3037 RMK A01 T00911102  RH  024%=      5-min Rain = 0
KPG1 140023Z 03013KT 09/M10 A3037 RMK A01 T00901102  RH  025%=      5-min Rain = 0
KPG1 140024Z 03013KT 09/M10 A3037 RMK A01 T00891102  RH  025%=      5-min Rain = 0
KPG1 140025Z 02012KT 09/M10 A3037 RMK A01 T00891102  RH  025%=      5-min Rain = 0
KPG1 140026Z 02011KT 09/M10 A3037 RMK A01 T00881102  RH  025%=      5-min Rain = 0
KPG1 140027Z 03011KT 09/M10 A3037 RMK A01 T00871102  RH  025%=      5-min Rain = 0
KPG1 140028Z 03012KT 09/M10 A3037 RMK A01 T00861102  RH  025%=      5-min Rain = 0
KPG1 140029Z 03012KT 09/M10 A3037 RMK A01 T00861102  RH  025%=      5-min Rain = 0
KPG1 140030Z 03013KT 09/M10 A3037 RMK A01 T00861102  RH  025%=      5-min Rain = 0
KPG1 140031Z 03013KT 09/M10 A3037 RMK A01 T00861102  RH  025%=      5-min Rain = 0
KPG1 140032Z 02012KT 09/M10 A3037 RMK A01 T00861103  RH  025%=      5-min Rain = 0
KPG1 140033Z 03012KT 09/M10 A3037 RMK A01 T00851103  RH  025%=      5-min Rain = 0
KPG1 140034Z 04013KT 09/M10 A3037 RMK A01 T00851103  RH  025%=      5-min Rain = 0
KPG1 140035Z 03013KT 09/M10 A3037 RMK A01 T00851103  RH  025%=      5-min Rain = 0
KPG1 140036Z 03012KT 09/M10 A3037 RMK A01 T00851103  RH  025%=      5-min Rain = 0
KPG1 140037Z 03011KT 09/M10 A3037 RMK A01 T00851103  RH  025%=      5-min Rain = 0
KPG1 140038Z 03011KT 08/M10 A3037 RMK A01 T00831103  RH  026%=      5-min Rain = 0
KPG1 140039Z 02013KT 08/M10 A3037 RMK A01 T00831103  RH  026%=      5-min Rain = 0
KPG1 140040Z 03012KT 08/M10 A3037 RMK A01 T00831104  RH  025%=      5-min Rain = 0
KPG1 140041Z 03013KT 08/M10 A3037 RMK A01 T00831103  RH  025%=      5-min Rain = 0
KPG1 140042Z 02013KT 08/M10 A3037 RMK A01 T00831103  RH  025%=      5-min Rain = 0
KPG1 140043Z 02012KT 08/M10 A3037 RMK A01 T00831104  RH  026%=      5-min Rain = 0
KPG1 140044Z 02014KT 08/M10 A3037 RMK A01 T00821104  RH  026%=      5-min Rain = 0
KPG1 140045Z 03013KT 08/M10 A3037 RMK A01 T00831104  RH  025%=      5-min Rain = 0
KPG1 140046Z 02013KT 08/M10 A3037 RMK A01 T00831104  RH  025%=      5-min Rain = 0
KPG1 140047Z 02014KT 08/M10 A3037 RMK A01 T00821104  RH  025%=      5-min Rain = 0
KPG1 140048Z 02014KT 08/M10 A3037 RMK A01 T00821104  RH  026%=      5-min Rain = 0
KPG1 140049Z 02013KT 08/M10 A3037 RMK A01 T00821104  RH  026%=      5-min Rain = 0
KPG1 140050Z 02013KT 08/M10 A3037 RMK A01 T00821104  RH  026%=      5-min Rain = 0
KPG1 140051Z 01013KT 08/M10 A3037 RMK A01 T00821104  RH  026%=      5-min Rain = 0
KPG1 140052Z 01013KT 08/M10 A3037 RMK A01 T00821104  RH  026%=      5-min Rain = 0
KPG1 140053Z 01013KT 08/M11 A3037 RMK A01 T00821105  RH  025%=      5-min Rain = 0
KPG1 140054Z 02015KT 08/M11 A3037 RMK A01 T00821105  RH  025%=      5-min Rain = 0
KPG1 140055Z 01014KT 08/M11 A3037 RMK A01 T00821105  RH  025%=      5-min Rain = 0
KPG1 140056Z 02013KT 08/M11 A3037 RMK A01 T00821105  RH  025%=      5-min Rain = 0
KPG1 140057Z 02014KT 08/M11 A3037 RMK A01 T00821105  RH  025%=      5-min Rain = 0
KPG1 140058Z 02014KT 08/M11 A3037 RMK A01 T00811106  RH  025%=      5-min Rain = 0
KPG1 140059Z 02013KT 08/M11 A3037 RMK A01 T00811106  RH  025%=      5-min Rain = 0
KPG1 140100Z 02013KT 08/M11 A3037 RMK A01 T00811105  RH  025%=      5-min Rain = 0
KPG1 140101Z 01014KT 08/M11 A3036 RMK A01 T00811106  RH  025%=      5-min Rain = 0
KPG1 140102Z 02014KT 08/M11 A3036 RMK A01 T00811106  RH  025%=      5-min Rain = 0
KPG1 140103Z 01014KT 08/M11 A3036 RMK A01 T00811106  RH  025%=      5-min Rain = 0
KPG1 140104Z 01015KT 08/M11 A3036 RMK A01 T00801107  RH  025%=      5-min Rain = 0
KPG1 140105Z 01015KT 08/M11 A3036 RMK A01 T00801107  RH  025%=      5-min Rain = 0
KPG1 140106Z 01014KT 08/M11 A3036 RMK A01 T00801107  RH  025%=      5-min Rain = 0
KPG1 140107Z 02013KT 08/M11 A3036 RMK A01 T00791107  RH  025%=      5-min Rain = 0
KPG1 140108Z 01014KT 08/M11 A3036 RMK A01 T00791107  RH  026%=      5-min Rain = 0
KPG1 140109Z 01014KT 08/M11 A3036 RMK A01 T00781107  RH  026%=      5-min Rain = 0
KPG1 140110Z 01014KT 08/M11 A3036 RMK A01 T00781107  RH  026%=      5-min Rain = 0
KPG1 140111Z 02016KT 08/M11 A3036 RMK A01 T00781107  RH  026%=      5-min Rain = 0
KPG1 140112Z 02013KT 08/M11 A3036 RMK A01 T00781107  RH  026%=      5-min Rain = 0
KPG1 140113Z 02014KT 08/M11 A3036 RMK A01 T00781108  RH  026%=      5-min Rain = 0
KPG1 140114Z 02014KT 08/M11 A3036 RMK A01 T00771108  RH  026%=      5-min Rain = 0
KPG1 140115Z 01014KT 08/M11 A3036 RMK A01 T00781108  RH  026%=      5-min Rain = 0
KPG1 140116Z 01012KT 08/M11 A3036 RMK A01 T00781108  RH  026%=      5-min Rain = 0
KPG1 140117Z 02013KT 08/M11 A3036 RMK A01 T00781108  RH  026%=      5-min Rain = 0
KPG1 140118Z 02014KT 08/M11 A3036 RMK A01 T00771108  RH  026%=      5-min Rain = 0
KPG1 140119Z 01012KT 08/M11 A3036 RMK A01 T00771108  RH  026%=      5-min Rain = 0
KPG1 140120Z 01012KT 08/M11 A3036 RMK A01 T00771108  RH  026%=      5-min Rain = 0
KPG1 140121Z 02013KT 08/M11 A3036 RMK A01 T00771108  RH  026%=      5-min Rain = 0
KPG1 140122Z 01013KT 08/M11 A3036 RMK A01 T00771108  RH  026%=      5-min Rain = 0
KPG1 140123Z 02014KT 08/M11 A3036 RMK A01 T00771108  RH  026%=      5-min Rain = 0
KPG1 140124Z 02012KT 08/M11 A3036 RMK A01 T00771109  RH  026%=      5-min Rain = 0
KPG1 140125Z 02014KT 08/M11 A3036 RMK A01 T00771109  RH  026%=      5-min Rain = 0
KPG1 140126Z 01012KT 08/M11 A3036 RMK A01 T00771108  RH  026%=      5-min Rain = 0
KPG1 140127Z 02016KT 08/M11 A3036 RMK A01 T00771109  RH  026%=      5-min Rain = 0
KPG1 140128Z 02013KT 08/M11 A3036 RMK A01 T00771109  RH  026%=      5-min Rain = 0
KPG1 140129Z 02014KT 08/M11 A3037 RMK A01 T00771108  RH  026%=      5-min Rain = 0
KPG1 140130Z 02015KT 08/M11 A3037 RMK A01 T00761109  RH  026%=      5-min Rain = 0
KPG1 140131Z 02014KT 08/M11 A3037 RMK A01 T00761109  RH  026%=      5-min Rain = 0
KPG1 140132Z 02012KT 08/M11 A3037 RMK A01 T00761109  RH  026%=      5-min Rain = 0
KPG1 140133Z 02014KT 08/M11 A3037 RMK A01 T00761110  RH  026%=      5-min Rain = 0
KPG1 140134Z 01013KT 08/M11 A3037 RMK A01 T00751110  RH  026%=      5-min Rain = 0
KPG1 140135Z 02013KT 08/M11 A3037 RMK A01 T00751109  RH  026%=      5-min Rain = 0
KPG1 140136Z 02015KT 08/M11 A3037 RMK A01 T00751109  RH  026%=      5-min Rain = 0
KPG1 140137Z 02014KT 08/M11 A3037 RMK A01 T00751109  RH  026%=      5-min Rain = 0
KPG1 140138Z 02013KT 08/M11 A3037 RMK A01 T00751110  RH  026%=      5-min Rain = 0
KPG1 140139Z 01013KT 08/M11 A3037 RMK A01 T00751110  RH  026%=      5-min Rain = 0
KPG1 140140Z 02014KT 08/M11 A3037 RMK A01 T00751109  RH  026%=      5-min Rain = 0
KPG1 140141Z 02013KT 07/M11 A3037 RMK A01 T00741110  RH  026%=      5-min Rain = 0
KPG1 140142Z 02013KT 08/M11 A3037 RMK A01 T00751110  RH  026%=      5-min Rain = 0
KPG1 140143Z 02014KT 07/M11 A3037 RMK A01 T00741110  RH  026%=      5-min Rain = 0
KPG1 140144Z 02012KT 07/M11 A3037 RMK A01 T00741110  RH  026%=      5-min Rain = 0
KPG1 140145Z 02013KT 08/M11 A3037 RMK A01 T00751110  RH  026%=      5-min Rain = 0
KPG1 140146Z 02013KT 08/M11 A3037 RMK A01 T00751109  RH  026%=      5-min Rain = 0
KPG1 140147Z 02014KT 07/M11 A3037 RMK A01 T00741110  RH  026%=      5-min Rain = 0
KPG1 140148Z 02012KT 08/M11 A3037 RMK A01 T00751110  RH  026%=      5-min Rain = 0
KPG1 140149Z 02012KT 08/M11 A3037 RMK A01 T00751109  RH  026%=      5-min Rain = 0
KPG1 140150Z 02011KT 08/M11 A3037 RMK A01 T00751110  RH  026%=      5-min Rain = 0
KPG1 140151Z 02013KT 08/M11 A3037 RMK A01 T00751110  RH  026%=      5-min Rain = 0
KPG1 140152Z 02012KT 08/M11 A3037 RMK A01 T00751110  RH  026%=      5-min Rain = 0
KPG1 140153Z 02010KT 07/M11 A3037 RMK A01 T00741110  RH  026%=      5-min Rain = 0
KPG1 140154Z 02013KT 07/M11 A3037 RMK A01 T00741110  RH  026%=      5-min Rain = 0
KPG1 140155Z 02014KT 07/M11 A3037 RMK A01 T00741109  RH  026%=      5-min Rain = 0
KPG1 140156Z 02014KT 07/M11 A3037 RMK A01 T00741110  RH  026%=      5-min Rain = 0
KPG1 140157Z 02013KT 07/M11 A3037 RMK A01 T00741110  RH  026%=      5-min Rain = 0
KPG1 140158Z 01014KT 08/M11 A3037 RMK A01 T00751110  RH  026%=      5-min Rain = 0
KPG1 140159Z 02012KT 08/M11 A3037 RMK A01 T00761109  RH  026%=      5-min Rain = 0
KPG1 140200Z 02014KT 08/M11 A3037 RMK A01 T00751110  RH  026%=      5-min Rain = 0
KPG1 140201Z 01014KT 08/M11 A3037 RMK A01 T00751110  RH  026%=      5-min Rain = 0
KPG1 140202Z 02014KT 08/M11 A3037 RMK A01 T00751110  RH  026%=      5-min Rain = 0
KPG1 140203Z 02015KT 07/M11 A3037 RMK A01 T00741110  RH  026%=      5-min Rain = 0
KPG1 140204Z 02013KT 08/M11 A3037 RMK A01 T00751110  RH  026%=      5-min Rain = 0
KPG1 140205Z 02015KT 08/M11 A3037 RMK A01 T00751110  RH  026%=      5-min Rain = 0
KPG1 140206Z 01013KT 08/M11 A3037 RMK A01 T00751110  RH  026%=      5-min Rain = 0
KPG1 140207Z 02011KT 08/M11 A3037 RMK A01 T00751110  RH  026%=      5-min Rain = 0
KPG1 140208Z 02013KT 07/M11 A3037 RMK A01 T00741109  RH  026%=      5-min Rain = 0
KPG1 140209Z 01014KT 07/M11 A3037 RMK A01 T00741109  RH  026%=      5-min Rain = 0
KPG1 140210Z 02013KT 07/M11 A3037 RMK A01 T00741109  RH  026%=      5-min Rain = 0
KPG1 140211Z 02014KT 07/M11 A3037 RMK A01 T00741109  RH  026%=      5-min Rain = 0
KPG1 140212Z 01011KT 07/M11 A3037 RMK A01 T00741109  RH  026%=      5-min Rain = 0
KPG1 140213Z 01014KT 07/M11 A3037 RMK A01 T00741110  RH  026%=      5-min Rain = 0
KPG1 140214Z 01013KT 07/M11 A3037 RMK A01 T00741109  RH  026%=      5-min Rain = 0
KPG1 140215Z 02013KT 07/M11 A3037 RMK A01 T00741109  RH  026%=      5-min Rain = 0
KPG1 140216Z 01013KT 07/M11 A3037 RMK A01 T00741109  RH  026%=      5-min Rain = 0
KPG1 140217Z 01013KT 07/M11 A3037 RMK A01 T00731109  RH  026%=      5-min Rain = 0
KPG1 140218Z 01012KT 07/M11 A3037 RMK A01 T00741109  RH  026%=      5-min Rain = 0
KPG1 140219Z 01013KT 07/M11 A3037 RMK A01 T00741108  RH  026%=      5-min Rain = 0
KPG1 140220Z 01013KT 07/M11 A3037 RMK A01 T00741109  RH  026%=      5-min Rain = 0
KPG1 140221Z 01014KT 07/M11 A3037 RMK A01 T00741109  RH  026%=      5-min Rain = 0
KPG1 140222Z 02014KT 07/M11 A3037 RMK A01 T00741109  RH  026%=      5-min Rain = 0
KPG1 140223Z 01013KT 07/M11 A3037 RMK A01 T00741109  RH  026%=      5-min Rain = 0
KPG1 140224Z 01014KT 07/M11 A3037 RMK A01 T00741109  RH  026%=      5-min Rain = 0
KPG1 140225Z 01013KT 07/M11 A3037 RMK A01 T00741109  RH  026%=      5-min Rain = 0
KPG1 140226Z 01013KT 07/M11 A3037 RMK A01 T00741109  RH  026%=      5-min Rain = 0
KPG1 140227Z 01013KT 07/M11 A3037 RMK A01 T00741109  RH  026%=      5-min Rain = 0
KPG1 140228Z 01012KT 07/M11 A3037 RMK A01 T00741109  RH  026%=      5-min Rain = 0
KPG1 140229Z 01012KT 07/M11 A3037 RMK A01 T00741109  RH  026%=      5-min Rain = 0
KPG1 140230Z 01012KT 07/M11 A3037 RMK A01 T00731109  RH  026%=      5-min Rain = 0
KPG1 140231Z 01010KT 07/M11 A3037 RMK A01 T00731109  RH  026%=      5-min Rain = 0
KPG1 140232Z 02012KT 07/M11 A3037 RMK A01 T00731108  RH  026%=      5-min Rain = 0
KPG1 140233Z 02014KT 07/M11 A3037 RMK A01 T00731109  RH  026%=      5-min Rain = 0
KPG1 140234Z 02011KT 07/M11 A3037 RMK A01 T00731109  RH  026%=      5-min Rain = 0
KPG1 140235Z 02013KT 07/M11 A3037 RMK A01 T00731109  RH  026%=      5-min Rain = 0
KPG1 140236Z 01013KT 07/M11 A3037 RMK A01 T00741108  RH  026%=      5-min Rain = 0
KPG1 140237Z 01013KT 07/M11 A3037 RMK A01 T00741109  RH  026%=      5-min Rain = 0
KPG1 140238Z 02014KT 07/M11 A3037 RMK A01 T00741109  RH  026%=      5-min Rain = 0
KPG1 140239Z 02012KT 07/M11 A3037 RMK A01 T00741108  RH  026%=      5-min Rain = 0
KPG1 140240Z 02012KT 07/M11 A3037 RMK A01 T00741109  RH  026%=      5-min Rain = 0
KPG1 140241Z 02012KT 07/M11 A3037 RMK A01 T00731109  RH  026%=      5-min Rain = 0
KPG1 140242Z 02012KT 07/M11 A3037 RMK A01 T00731108  RH  026%=      5-min Rain = 0
KPG1 140243Z 02012KT 07/M11 A3037 RMK A01 T00721108  RH  026%=      5-min Rain = 0
KPG1 140244Z 02011KT 07/M11 A3037 RMK A01 T00721108  RH  026%=      5-min Rain = 0
KPG1 140245Z 02011KT 07/M11 A3037 RMK A01 T00721108  RH  026%=      5-min Rain = 0
KPG1 140246Z 01012KT 07/M11 A3037 RMK A01 T00721108  RH  026%=      5-min Rain = 0
KPG1 140247Z 01012KT 07/M11 A3037 RMK A01 T00731108  RH  026%=      5-min Rain = 0
KPG1 140248Z 01011KT 07/M11 A3037 RMK A01 T00721108  RH  026%=      5-min Rain = 0
KPG1 140249Z 02012KT 07/M11 A3037 RMK A01 T00721108  RH  026%=      5-min Rain = 0
KPG1 140250Z 02012KT 07/M11 A3037 RMK A01 T00721108  RH  027%=      5-min Rain = 0
KPG1 140251Z 02013KT 07/M11 A3037 RMK A01 T00721108  RH  026%=      5-min Rain = 0
KPG1 140252Z 02012KT 07/M11 A3038 RMK A01 T00721108  RH  027%=      5-min Rain = 0
KPG1 140253Z 02011G16KT 07/M11 A3038 RMK A01 T00721108  RH  027%=      5-min Rain = 0
KPG1 140254Z 02011KT 07/M11 A3038 RMK A01 T00711108  RH  027%=      5-min Rain = 0
KPG1 140255Z 02013KT 07/M11 A3038 RMK A01 T00721108  RH  027%=      5-min Rain = 0
KPG1 140256Z 02013KT 07/M11 A3038 RMK A01 T00711108  RH  027%=      5-min Rain = 0
KPG1 140257Z 02014KT 07/M11 A3038 RMK A01 T00711108  RH  027%=      5-min Rain = 0
KPG1 140258Z 03012KT 07/M11 A3038 RMK A01 T00721107  RH  027%=      5-min Rain = 0
KPG1 140259Z 02013KT 07/M11 A3037 RMK A01 T00711108  RH  027%=      5-min Rain = 0
KPG1 140300Z 02013KT 07/M11 A3038 RMK A01 T00701108  RH  027%=      5-min Rain = 0
KPG1 140301Z 03011KT 07/M11 A3037 RMK A01 T00711108  RH  027%=      5-min Rain = 0
KPG1 140302Z 03011KT 07/M11 A3037 RMK A01 T00681109  RH  027%=      5-min Rain = 0
KPG1 140303Z 02011KT 07/M11 A3037 RMK A01 T00661109  RH  027%=      5-min Rain = 0
KPG1 140304Z 02013KT 07/M11 A3037 RMK A01 T00651108  RH  028%=      5-min Rain = 0
KPG1 140305Z 01012KT 07/M11 A3037 RMK A01 T00651108  RH  028%=      5-min Rain = 0
KPG1 140306Z 02012KT 07/M11 A3037 RMK A01 T00661107  RH  028%=      5-min Rain = 0
KPG1 140307Z 02014KT 07/M11 A3037 RMK A01 T00681106  RH  028%=      5-min Rain = 0
KPG1 140308Z 02013KT 07/M11 A3037 RMK A01 T00691106  RH  027%=      5-min Rain = 0
KPG1 140309Z 02013KT 07/M11 A3037 RMK A01 T00701106  RH  027%=      5-min Rain = 0
KPG1 140310Z 02012KT 07/M11 A3037 RMK A01 T00691107  RH  027%=      5-min Rain = 0
KPG1 140311Z 02013KT 07/M11 A3037 RMK A01 T00681108  RH  027%=      5-min Rain = 0
KPG1 140312Z 02013KT 07/M11 A3037 RMK A01 T00681107  RH  028%=      5-min Rain = 0
KPG1 140313Z 02013KT 07/M11 A3037 RMK A01 T00691106  RH  027%=      5-min Rain = 0
KPG1 140314Z 02013KT 07/M11 A3037 RMK A01 T00691107  RH  027%=      5-min Rain = 0
KPG1 140315Z 03011KT 07/M11 A3038 RMK A01 T00701107  RH  027%=      5-min Rain = 0
KPG1 140316Z 03011KT 07/M11 A3038 RMK A01 T00691107  RH  027%=      5-min Rain = 0
KPG1 140317Z 03012KT 07/M11 A3038 RMK A01 T00671108  RH  027%=      5-min Rain = 0
KPG1 140318Z 03012KT 07/M11 A3038 RMK A01 T00651108  RH  028%=      5-min Rain = 0
KPG1 140319Z 02013KT 06/M11 A3038 RMK A01 T00641108  RH  028%=      5-min Rain = 0
KPG1 140320Z 02012KT 06/M11 A3038 RMK A01 T00641107  RH  028%=      5-min Rain = 0
KPG1 140321Z 02013KT 07/M11 A3038 RMK A01 T00651106  RH  028%=      5-min Rain = 0
KPG1 140322Z 01013KT 07/M11 A3038 RMK A01 T00671106  RH  028%=      5-min Rain = 0
KPG1 140323Z 02012KT 07/M11 A3038 RMK A01 T00691105  RH  028%=      5-min Rain = 0
KPG1 140324Z 02011KT 07/M11 A3038 RMK A01 T00701106  RH  027%=      5-min Rain = 0
KPG1 140325Z 02013KT 07/M11 A3038 RMK A01 T00691107  RH  027%=      5-min Rain = 0
KPG1 140326Z 01013KT 07/M11 A3038 RMK A01 T00701106  RH  027%=      5-min Rain = 0
KPG1 140327Z 02013KT 07/M11 A3038 RMK A01 T00701106  RH  027%=      5-min Rain = 0
KPG1 140328Z 01013KT 07/M11 A3038 RMK A01 T00701106  RH  027%=      5-min Rain = 0
KPG1 140329Z 02013KT 07/M11 A3038 RMK A01 T00701107  RH  027%=      5-min Rain = 0
KPG1 140330Z 02013KT 07/M11 A3038 RMK A01 T00701107  RH  027%=      5-min Rain = 0
KPG1 140331Z 02013KT 07/M11 A3038 RMK A01 T00701106  RH  027%=      5-min Rain = 0
KPG1 140332Z 02013KT 07/M11 A3038 RMK A01 T00701106  RH  027%=      5-min Rain = 0
KPG1 140333Z 02012KT 07/M11 A3038 RMK A01 T00701106  RH  027%=      5-min Rain = 0
KPG1 140334Z 02012KT 07/M11 A3038 RMK A01 T00691107  RH  027%=      5-min Rain = 0
KPG1 140335Z 02013KT 07/M11 A3038 RMK A01 T00691106  RH  027%=      5-min Rain = 0
KPG1 140336Z 02012KT 07/M11 A3038 RMK A01 T00691106  RH  027%=      5-min Rain = 0
KPG1 140337Z 02012KT 07/M11 A3038 RMK A01 T00681106  RH  028%=      5-min Rain = 0
KPG1 140338Z 02012KT 07/M11 A3038 RMK A01 T00681106  RH  028%=      5-min Rain = 0
KPG1 140339Z 02014KT 07/M11 A3038 RMK A01 T00681106  RH  028%=      5-min Rain = 0
KPG1 140340Z 02014KT 07/M11 A3038 RMK A01 T00681106  RH  028%=      5-min Rain = 0
KPG1 140341Z 02012KT 07/M11 A3038 RMK A01 T00691106  RH  028%=      5-min Rain = 0
KPG1 140342Z 02014KT 07/M11 A3038 RMK A01 T00701105  RH  028%=      5-min Rain = 0
KPG1 140343Z 02013KT 07/M11 A3038 RMK A01 T00691106  RH  027%=      5-min Rain = 0
KPG1 140344Z 02013KT 07/M11 A3038 RMK A01 T00691106  RH  027%=      5-min Rain = 0
KPG1 140345Z 01012KT 07/M11 A3038 RMK A01 T00701106  RH  027%=      5-min Rain = 0
KPG1 140346Z 02014KT 07/M11 A3038 RMK A01 T00701106  RH  027%=      5-min Rain = 0
KPG1 140347Z 01014KT 07/M11 A3038 RMK A01 T00701106  RH  027%=      5-min Rain = 0
KPG1 140348Z 02013KT 07/M11 A3038 RMK A01 T00701106  RH  027%=      5-min Rain = 0
KPG1 140349Z 02012KT 07/M11 A3038 RMK A01 T00701106  RH  027%=      5-min Rain = 0
KPG1 140350Z 01013KT 07/M11 A3038 RMK A01 T00701106  RH  027%=      5-min Rain = 0
KPG1 140351Z 02013KT 07/M11 A3038 RMK A01 T00701106  RH  027%=      5-min Rain = 0
KPG1 140352Z 02012KT 07/M11 A3038 RMK A01 T00691106  RH  027%=      5-min Rain = 0
KPG1 140353Z 02013KT 07/M11 A3038 RMK A01 T00691106  RH  027%=      5-min Rain = 0
KPG1 140354Z 02013KT 07/M11 A3038 RMK A01 T00691106  RH  027%=      5-min Rain = 0
KPG1 140355Z 02014KT 07/M11 A3038 RMK A01 T00691106  RH  027%=      5-min Rain = 0
KPG1 140356Z 02011KT 07/M11 A3038 RMK A01 T00691106  RH  027%=      5-min Rain = 0
KPG1 140357Z 02013KT 07/M11 A3038 RMK A01 T00701105  RH  027%=      5-min Rain = 0
KPG1 140358Z 02013KT 07/M11 A3038 RMK A01 T00691106  RH  028%=      5-min Rain = 0
KPG1 140359Z 01013KT 07/M11 A3038 RMK A01 T00691105  RH  028%=      5-min Rain = 0
KPG1 140400Z 02011KT 07/M11 A3038 RMK A01 T00701105  RH  027%=      5-min Rain = 0
KPG1 140401Z 02012KT 07/M11 A3038 RMK A01 T00701105  RH  027%=      5-min Rain = 0
KPG1 140402Z 02013KT 07/M11 A3038 RMK A01 T00691105  RH  028%=      5-min Rain = 0
KPG1 140403Z 02013KT 07/M11 A3038 RMK A01 T00691106  RH  028%=      5-min Rain = 0
KPG1 140404Z 02012KT 07/M11 A3038 RMK A01 T00691105  RH  028%=      5-min Rain = 0
KPG1 140405Z 02012KT 07/M11 A3038 RMK A01 T00691105  RH  028%=      5-min Rain = 0
KPG1 140406Z 02012KT 07/M11 A3038 RMK A01 T00691105  RH  028%=      5-min Rain = 0
KPG1 140407Z 02014KT 07/M11 A3038 RMK A01 T00691105  RH  028%=      5-min Rain = 0
KPG1 140408Z 02013KT 07/M11 A3038 RMK A01 T00691105  RH  028%=      5-min Rain = 0
KPG1 140409Z 02013KT 07/M10 A3038 RMK A01 T00701104  RH  028%=      5-min Rain = 0
KPG1 140410Z 02014KT 07/M11 A3038 RMK A01 T00701105  RH  028%=      5-min Rain = 0
KPG1 140411Z 02013KT 07/M11 A3038 RMK A01 T00691105  RH  028%=      5-min Rain = 0
KPG1 140412Z 02011G16KT 07/M11 A3038 RMK A01 T00691105  RH  028%=      5-min Rain = 0
KPG1 140413Z 02012KT 07/M11 A3038 RMK A01 T00691105  RH  028%=      5-min Rain = 0
KPG1 140414Z 02011KT 07/M11 A3038 RMK A01 T00691105  RH  028%=      5-min Rain = 0
KPG1 140415Z 01011KT 07/M11 A3038 RMK A01 T00691105  RH  028%=      5-min Rain = 0
KPG1 140416Z 01011KT 07/M11 A3038 RMK A01 T00681105  RH  028%=      5-min Rain = 0
KPG1 140417Z 02012KT 07/M11 A3038 RMK A01 T00681105  RH  028%=      5-min Rain = 0
KPG1 140418Z 01013KT 07/M11 A3038 RMK A01 T00681105  RH  028%=      5-min Rain = 0
KPG1 140419Z 02012KT 07/M11 A3038 RMK A01 T00691105  RH  028%=      5-min Rain = 0
KPG1 140420Z 01012KT 07/M10 A3038 RMK A01 T00691104  RH  028%=      5-min Rain = 0
KPG1 140421Z 01012KT 07/M11 A3038 RMK A01 T00681105  RH  028%=      5-min Rain = 0
KPG1 140422Z 01011KT 07/M11 A3038 RMK A01 T00681105  RH  028%=      5-min Rain = 0
KPG1 140423Z 01011KT 07/M11 A3038 RMK A01 T00681105  RH  028%=      5-min Rain = 0
KPG1 140424Z 01013KT 07/M11 A3038 RMK A01 T00681105  RH  028%=      5-min Rain = 0
KPG1 140425Z 01012KT 07/M10 A3038 RMK A01 T00681104  RH  028%=      5-min Rain = 0
KPG1 140426Z 01012KT 07/M10 A3038 RMK A01 T00691104  RH  028%=      5-min Rain = 0
KPG1 140427Z 01012KT 07/M10 A3038 RMK A01 T00681104  RH  028%=      5-min Rain = 0
KPG1 140428Z 02014KT 07/M11 A3038 RMK A01 T00681105  RH  028%=      5-min Rain = 0
KPG1 140429Z 01014KT 07/M11 A3038 RMK A01 T00681105  RH  028%=      5-min Rain = 0
KPG1 140430Z 02012KT 07/M10 A3038 RMK A01 T00691104  RH  028%=      5-min Rain = 0
KPG1 140431Z 01013KT 07/M10 A3038 RMK A01 T00681104  RH  028%=      5-min Rain = 0
KPG1 140432Z 01012KT 07/M11 A3038 RMK A01 T00681105  RH  028%=      5-min Rain = 0
KPG1 140433Z 01012KT 07/M10 A3038 RMK A01 T00681104  RH  028%=      5-min Rain = 0
KPG1 140434Z 01013KT 07/M11 A3038 RMK A01 T00681105  RH  028%=      5-min Rain = 0
KPG1 140435Z 01014KT 07/M10 A3038 RMK A01 T00681104  RH  028%=      5-min Rain = 0
KPG1 140436Z 01013KT 07/M10 A3038 RMK A01 T00681104  RH  028%=      5-min Rain = 0
KPG1 140437Z 01012KT 07/M11 A3038 RMK A01 T00681105  RH  028%=      5-min Rain = 0
KPG1 140438Z 01013KT 07/M11 A3038 RMK A01 T00681105  RH  028%=      5-min Rain = 0
KPG1 140439Z 01013KT 07/M10 A3038 RMK A01 T00681104  RH  028%=      5-min Rain = 0
KPG1 140440Z 01015KT 07/M11 A3038 RMK A01 T00671105  RH  028%=      5-min Rain = 0
KPG1 140441Z 01013KT 07/M10 A3038 RMK A01 T00681104  RH  028%=      5-min Rain = 0
KPG1 140442Z 01013KT 07/M10 A3038 RMK A01 T00681104  RH  028%=      5-min Rain = 0
KPG1 140443Z 01014KT 07/M10 A3038 RMK A01 T00671104  RH  028%=      5-min Rain = 0
KPG1 140444Z 01013KT 07/M11 A3038 RMK A01 T00671105  RH  028%=      5-min Rain = 0
KPG1 140445Z 01014KT 07/M11 A3038 RMK A01 T00671105  RH  028%=      5-min Rain = 0
KPG1 140446Z 01014KT 07/M10 A3038 RMK A01 T00671104  RH  028%=      5-min Rain = 0
KPG1 140447Z 01013KT 07/M10 A3038 RMK A01 T00671104  RH  028%=      5-min Rain = 0
KPG1 140448Z 01014KT 07/M10 A3038 RMK A01 T00671104  RH  028%=      5-min Rain = 0
KPG1 140449Z 01014KT 07/M10 A3038 RMK A01 T00671104  RH  028%=      5-min Rain = 0
KPG1 140450Z 01013KT 07/M10 A3038 RMK A01 T00671104  RH  028%=      5-min Rain = 0
KPG1 140451Z 01011KT 07/M10 A3038 RMK A01 T00671104  RH  028%=      5-min Rain = 0
KPG1 140452Z 01013KT 07/M10 A3038 RMK A01 T00671104  RH  028%=      5-min Rain = 0
KPG1 140453Z 01013KT 07/M10 A3038 RMK A01 T00671104  RH  028%=      5-min Rain = 0
KPG1 140454Z 01012KT 07/M10 A3038 RMK A01 T00671104  RH  028%=      5-min Rain = 0
KPG1 140455Z 01012KT 07/M10 A3038 RMK A01 T00671104  RH  028%=      5-min Rain = 0
KPG1 140456Z 01013KT 07/M10 A3038 RMK A01 T00661104  RH  028%=      5-min Rain = 0
KPG1 140457Z 01014KT 07/M10 A3038 RMK A01 T00661104  RH  028%=      5-min Rain = 0
KPG1 140458Z 01013KT 07/M10 A3038 RMK A01 T00661104  RH  029%=      5-min Rain = 0
KPG1 140459Z 01012KT 07/M10 A3038 RMK A01 T00661104  RH  029%=      5-min Rain = 0
KPG1 140500Z 01013KT 07/M10 A3038 RMK A01 T00661103  RH  029%=      5-min Rain = 0
KPG1 140501Z 01013KT 07/M10 A3038 RMK A01 T00661103  RH  029%=      5-min Rain = 0
KPG1 140502Z 02013KT 07/M10 A3038 RMK A01 T00671103  RH  029%=      5-min Rain = 0
KPG1 140503Z 01013KT 07/M10 A3038 RMK A01 T00671102  RH  029%=      5-min Rain = 0
KPG1 140504Z 02013KT 07/M10 A3038 RMK A01 T00671102  RH  029%=      5-min Rain = 0
KPG1 140505Z 01013KT 07/M10 A3038 RMK A01 T00671102  RH  029%=      5-min Rain = 0
KPG1 140506Z 01013KT 07/M10 A3038 RMK A01 T00671102  RH  029%=      5-min Rain = 0
KPG1 140507Z 01012KT 07/M10 A3038 RMK A01 T00671102  RH  029%=      5-min Rain = 0
KPG1 140508Z 02014KT 07/M10 A3038 RMK A01 T00671102  RH  029%=      5-min Rain = 0
KPG1 140509Z 01011KT 07/M10 A3038 RMK A01 T00671102  RH  029%=      5-min Rain = 0
KPG1 140510Z 02011KT 07/M10 A3038 RMK A01 T00671102  RH  029%=      5-min Rain = 0
KPG1 140511Z 01012KT 07/M10 A3038 RMK A01 T00661102  RH  029%=      5-min Rain = 0
KPG1 140512Z 00013KT 07/M10 A3038 RMK A01 T00661102  RH  029%=      5-min Rain = 0
KPG1 140513Z 02012KT 07/M10 A3038 RMK A01 T00661102  RH  029%=      5-min Rain = 0
KPG1 140514Z 02012KT 07/M10 A3038 RMK A01 T00671102  RH  029%=      5-min Rain = 0
KPG1 140515Z 02012KT 07/M10 A3038 RMK A01 T00671101  RH  029%=      5-min Rain = 0
KPG1 140516Z 02012KT 07/M10 A3038 RMK A01 T00671101  RH  029%=      5-min Rain = 0
KPG1 140517Z 02014KT 07/M10 A3038 RMK A01 T00671101  RH  029%=      5-min Rain = 0
KPG1 140518Z 02012KT 07/M10 A3038 RMK A01 T00671101  RH  029%=      5-min Rain = 0
KPG1 140519Z 01010KT 07/M10 A3038 RMK A01 T00671101  RH  029%=      5-min Rain = 0
KPG1 140520Z 01011KT 07/M10 A3038 RMK A01 T00671101  RH  029%=      5-min Rain = 0
KPG1 140521Z 02013KT 07/M10 A3038 RMK A01 T00671101  RH  029%=      5-min Rain = 0
KPG1 140522Z 02010KT 07/M10 A3038 RMK A01 T00671100  RH  029%=      5-min Rain = 0
KPG1 140523Z 02013KT 07/M10 A3038 RMK A01 T00661101  RH  029%=      5-min Rain = 0
KPG1 140524Z 02013KT 07/M10 A3038 RMK A01 T00661101  RH  029%=      5-min Rain = 0
KPG1 140525Z 02013KT 07/M10 A3038 RMK A01 T00661101  RH  029%=      5-min Rain = 0
KPG1 140526Z 02014KT 07/M10 A3038 RMK A01 T00661101  RH  029%=      5-min Rain = 0
KPG1 140527Z 02013KT 07/M10 A3038 RMK A01 T00661101  RH  029%=      5-min Rain = 0
KPG1 140528Z 02013KT 07/M10 A3038 RMK A01 T00661101  RH  029%=      5-min Rain = 0
KPG1 140529Z 02013KT 07/M10 A3038 RMK A01 T00661100  RH  029%=      5-min Rain = 0
KPG1 140530Z 02013KT 07/M10 A3038 RMK A01 T00661100  RH  029%=      5-min Rain = 0
KPG1 140531Z 02013KT 07/M10 A3038 RMK A01 T00661100  RH  029%=      5-min Rain = 0
KPG1 140532Z 02013KT 07/M10 A3038 RMK A01 T00661100  RH  029%=      5-min Rain = 0
KPG1 140533Z 02014KT 07/M10 A3038 RMK A01 T00651101  RH  029%=      5-min Rain = 0
KPG1 140534Z 03012KT 07/M10 A3038 RMK A01 T00651100  RH  030%=      5-min Rain = 0
KPG1 140535Z 01011KT 06/M10 A3038 RMK A01 T00641101  RH  030%=      5-min Rain = 0
KPG1 140536Z 02012KT 06/M10 A3038 RMK A01 T00621101  RH  030%=      5-min Rain = 0
KPG1 140537Z 02012KT 06/M10 A3038 RMK A01 T00631100  RH  030%=      5-min Rain = 0
KPG1 140538Z 02010KT 06/M10 A3038 RMK A01 T00631100  RH  030%=      5-min Rain = 0
KPG1 140539Z 02010KT 06/M10 A3038 RMK A01 T00621101  RH  030%=      5-min Rain = 0
KPG1 140540Z 02012KT 06/M10 A3038 RMK A01 T00611101  RH  030%=      5-min Rain = 0
KPG1 140541Z 02012KT 06/M10 A3038 RMK A01 T00621099  RH  030%=      5-min Rain = 0
KPG1 140542Z 03012KT 06/M10 A3038 RMK A01 T00631099  RH  030%=      5-min Rain = 0
KPG1 140543Z 02011KT 06/M10 A3038 RMK A01 T00611101  RH  030%=      5-min Rain = 0
KPG1 140544Z 02011KT 06/M10 A3038 RMK A01 T00591100  RH  031%=      5-min Rain = 0
KPG1 140545Z 02013KT 06/M10 A3038 RMK A01 T00601099  RH  031%=      5-min Rain = 0
KPG1 140546Z 03011KT 06/M10 A3038 RMK A01 T00611098  RH  031%=      5-min Rain = 0
KPG1 140547Z 03011KT 06/M10 A3038 RMK A01 T00611099  RH  031%=      5-min Rain = 0
KPG1 140548Z 03012KT 06/M10 A3038 RMK A01 T00591100  RH  031%=      5-min Rain = 0
KPG1 140549Z 03012KT 06/M10 A3038 RMK A01 T00581100  RH  031%=      5-min Rain = 0
KPG1 140550Z 03012KT 06/M10 A3038 RMK A01 T00571100  RH  031%=      5-min Rain = 0
KPG1 140551Z 02011KT 06/M10 A3038 RMK A01 T00571100  RH  031%=      5-min Rain = 0
KPG1 140552Z 02011KT 06/M10 A3038 RMK A01 T00571099  RH  031%=      5-min Rain = 0
KPG1 140553Z 02010KT 06/M10 A3038 RMK A01 T00591099  RH  031%=      5-min Rain = 0
KPG1 140554Z 02010KT 06/M10 A3038 RMK A01 T00591099  RH  031%=      5-min Rain = 0
KPG1 140555Z 02010KT 06/M10 A3038 RMK A01 T00581100  RH  031%=      5-min Rain = 0
KPG1 140556Z 02011KT 06/M10 A3038 RMK A01 T00561100  RH  032%=      5-min Rain = 0
KPG1 140557Z 02010KT 06/M10 A3038 RMK A01 T00551099  RH  032%=      5-min Rain = 0
KPG1 140558Z 02009KT 06/M10 A3038 RMK A01 T00561099  RH  032%=      5-min Rain = 0
KPG1 140559Z 02010KT 06/M10 A3038 RMK A01 T00571099  RH  032%=      5-min Rain = 0

Page generated in 0.071 seconds.